WA4BPS Weather Reports


time (UTC)temp
F
wind
direction
speed
knots
gust
knots
rain 1hr
in
rain 24hr
in
rain mn
in
humidity
%
barometer
mb
20260505214204 71 315 8.7 15.6 0.00 0.00 0.00 53 1008.2
20260505214041 71 271 8.7 17.4 0.00 0.00 0.00 53 1008.2
20260505213940 71 270 7.0 18.2 0.00 0.00 0.00 53 1008.2
20260505213843 71 278 7.8 18.2 0.00 0.00 0.00 53 1008.2
20260505213742 71 272 9.6 18.2 0.00 0.00 0.00 53 1008.2
20260505213639 71 288 7.0 18.2 0.00 0.00 0.00 53 1008.2
20260505213537 71 309 6.1 18.2 0.00 0.00 0.00 53 1008.2
20260505213434 71 270 9.6 18.2 0.00 0.00 0.00 53 1008.2
20260505213353 71 256 6.1 18.2 0.00 0.00 0.00 53 1008.2
20260505213232 71 254 11.3 18.2 0.00 0.00 0.00 53 1008.2
20260505213204 71 320 8.7 18.2 0.00 0.00 0.00 53 1008.2
20260505213024 71 232 4.3 12.2 0.00 0.00 0.00 53 1008.2
20260505212944 71 257 7.0 19.1 0.00 0.00 0.00 53 1008.2
20260505212904 71 275 8.7 19.1 0.00 0.00 0.00 53 1008.1
20260505212802 71 271 7.8 19.1 0.00 0.00 0.00 53 1008.1
20260505212640 71 271 7.8 19.1 0.00 0.00 0.00 53 1008.1
20260505212538 71 277 6.1 19.1 0.00 0.00 0.00 53 1008.1
20260505212436 71 270 3.5 19.1 0.00 0.00 0.00 54 1008.1
20260505212335 71 268 6.1 19.1 0.00 0.00 0.00 54 1008.1
20260505212232 71 217 7.8 19.1 0.00 0.00 0.00 54 1008.1
20260505212134 71 264 12.2 19.1 0.00 0.00 0.00 56 1008.1
20260505212053 71 277 13.9 19.1 0.00 0.00 0.00 56 1008.1
20260505211950 71 289 10.4 14.8 0.00 0.00 0.00 56 1008.1
20260505211909 71 281 8.7 13.9 0.00 0.00 0.00 55 1008.1
20260505211745 71 336 7.8 13.9 0.00 0.00 0.00 55 1008.1
20260505211715 71 312 7.0 15.6 0.00 0.00 0.00 55 1008.1
20260505211532 71 311 6.1 15.6 0.00 0.00 0.00 55 1008.1
20260505211450 71 328 9.6 18.2 0.00 0.00 0.00 55 1008.1
20260505211328 71 227 7.0 18.2 0.00 0.00 0.00 55 1007.7
20260505211231 71 250 7.8 18.2 0.00 0.00 0.00 54 1007.7
20260505211129 71 213 8.7 18.2 0.00 0.00 0.00 54 1007.7
20260505211025 71 274 3.5 18.2 0.00 0.00 0.00 54 1007.7
20260505210943 71 309 4.3 18.2 0.00 0.00 0.00 54 1007.7
20260505210842 71 261 7.0 18.2 0.00 0.00 0.00 54 1007.7
20260505210741 71 284 7.8 18.2 0.00 0.00 0.00 54 1007.7
20260505210640 71 240 7.8 18.2 0.00 0.00 0.00 54 1007.7
20260505210537 71 256 7.0 18.2 0.00 0.00 0.00 54 1007.7
20260505210440 71 263 6.1 15.6 0.00 0.00 0.00 54 1007.7
20260505210359 71 251 5.2 15.6 0.00 0.00 0.00 54 1007.7
20260505210236 71 237 7.0 15.6 0.00 0.00 0.00 54 1007.7
20260505210208 71 226 8.7 15.6 0.00 0.00 0.00 53 1007.7
20260505210043 71 251 7.8 15.6 0.00 0.00 0.00 53 1007.7
20260505205943 71 247 7.8 15.6 0.00 0.00 0.00 53 1007.7
20260505205901 71 239 9.6 15.6 0.00 0.00 0.00 53 1007.8
20260505205739 71 216 7.8 13.9 0.00 0.00 0.00 53 1007.8
20260505205637 71 223 7.8 13.9 0.00 0.00 0.00 53 1007.8
20260505205559 71 224 7.8 13.9 0.00 0.00 0.00 53 1007.8
20260505205456 71 258 5.2 13.9 0.00 0.00 0.00 53 1007.8
20260505205354 71 319 7.0 13.9 0.00 0.00 0.00 54 1007.8
20260505205231 71 281 7.8 13.9 0.00 0.00 0.00 53 1007.8
20260505205129 71 288 5.2 13.9 0.00 0.00 0.00 53 1007.8
20260505205028 71 291 5.2 10.4 0.00 0.00 0.00 53 1007.8
20260505204926 71 247 2.6 13.9 0.00 0.00 0.00 53 1007.8
20260505204846 71 275 4.3 13.9 0.00 0.00 0.00 53 1007.8
20260505204744 71 315 4.3 13.9 0.00 0.00 0.00 53 1007.8
20260505204717 71 254 4.3 13.9 0.00 0.00 0.00 53 1007.8
20260505204532 71 326 3.5 13.9 0.00 0.00 0.00 53 1007.8
20260505204450 71 323 5.2 13.9 0.00 0.00 0.00 53 1007.8
20260505204328 71 246 3.5 13.9 0.00 0.00 0.00 54 1008.0
20260505204227 71 308 6.1 13.9 0.00 0.00 0.00 53 1008.0
20260505204126 71 294 8.7 13.9 0.00 0.00 0.00 53 1008.0
20260505204025 71 186 4.3 12.2 0.00 0.00 0.00 53 1008.0
20260505203943 71 174 3.5 16.5 0.00 0.00 0.00 53 1008.0
20260505203847 71 326 6.1 16.5 0.00 0.00 0.00 52 1008.0
20260505203743 71 302 8.7 16.5 0.00 0.00 0.00 52 1008.0
20260505203641 71 313 6.1 16.5 0.00 0.00 0.00 53 1008.0
20260505203540 71 284 4.3 16.5 0.00 0.00 0.00 52 1008.0
20260505203438 71 292 8.7 16.5 0.00 0.00 0.00 52 1008.0
20260505203356 71 277 8.7 16.5 0.00 0.00 0.00 53 1008.0
20260505203234 71 220 7.8 16.5 0.00 0.00 0.00 53 1008.0
20260505203204 71 237 10.4 16.5 0.00 0.00 0.00 53 1008.0
20260505203024 71 244 4.3 12.2 0.00 0.00 0.00 52 1008.0
20260505202943 71 236 5.2 12.2 0.00 0.00 0.00 52 1008.0
20260505202841 71 185 3.5 12.2 0.00 0.00 0.00 52 1008.1
20260505202739 71 181 6.1 12.2 0.00 0.00 0.00 52 1008.1
20260505202659 71 250 5.2 12.2 0.00 0.00 0.00 51 1008.1
20260505202536 71 193 6.1 10.4 0.00 0.00 0.00 51 1008.1
20260505202434 71 287 5.2 10.4 0.00 0.00 0.00 51 1008.1
20260505202332 71 232 4.3 8.7 0.00 0.00 0.00 51 1008.1
20260505202236 71 208 4.3 8.7 0.00 0.00 0.00 52 1008.1
20260505202137 71 258 5.2 9.6 0.00 0.00 0.00 52 1008.1
20260505202056 71 267 4.3 9.6 0.00 0.00 0.00 52 1008.1
20260505201934 71 232 2.6 9.6 0.00 0.00 0.00 52 1008.1
20260505201833 71 227 2.6 9.6 0.00 0.00 0.00 51 1008.1
20260505201744 71 240 2.6 9.6 0.00 0.00 0.00 51 1008.1
20260505201653 71 222 2.6 9.6 0.00 0.00 0.00 50 1008.1
20260505201535 71 240 4.3 9.6 0.00 0.00 0.00 50 1008.1
20260505201434 71 202 6.1 9.6 0.00 0.00 0.00 50 1008.1
20260505201332 71 229 7.0 9.6 0.00 0.00 0.00 50 1009.3
20260505201230 71 210 7.0 8.7 0.00 0.00 0.00 50 1009.3
20260505201148 71 246 3.5 8.7 0.00 0.00 0.00 50 1009.3
20260505201027 71 195 4.3 8.7 0.00 0.00 0.00 50 1009.3
20260505200925 71 192 5.2 8.7 0.00 0.00 0.00 50 1009.3
20260505200828 71 195 5.2 8.7 0.00 0.00 0.00 50 1009.3
20260505200727 71 254 4.3 7.0 0.00 0.00 0.00 50 1009.3
20260505200624 71 319 0.0 7.0 0.00 0.00 0.00 50 1009.3
20260505200523 71 268 1.7 7.0 0.00 0.00 0.00 50 1009.3
20260505200425 71 253 3.5 7.0 0.00 0.00 0.00 50 1009.3
20260505200343 71 198 4.3 7.0 0.00 0.00 0.00 49 1009.3
20260505200233 71 236 2.6 12.2 0.00 0.00 0.00 49 1009.3
20260505200146 71 233 1.7 12.2 0.00 0.00 0.00 49 1009.3
20260505200042 71 257 2.6 12.2 0.00 0.00 0.00 49 1009.3
20260505195941 71 240 3.5 12.2 0.00 0.00 0.00 48 1009.3
20260505195840 71 289 4.3 12.2 0.00 0.00 0.00 48 1008.8
20260505195739 72 229 3.5 12.2 0.00 0.00 0.00 49 1008.8
20260505195658 72 233 3.5 12.2 0.00 0.00 0.00 49 1008.8
20260505195536 72 239 2.6 12.2 0.00 0.00 0.00 49 1008.8
20260505195435 72 206 7.0 12.2 0.00 0.00 0.00 49 1008.8
20260505195337 72 195 7.0 12.2 0.00 0.00 0.00 49 1008.8
20260505195234 72 250 3.5 11.3 0.00 0.00 0.00 48 1008.8
20260505195133 72 267 3.5 11.3 0.00 0.00 0.00 48 1008.8
20260505195055 72 169 7.0 11.3 0.00 0.00 0.00 49 1008.8
20260505194952 72 191 5.2 11.3 0.00 0.00 0.00 48 1008.8
20260505194831 72 254 7.0 11.3 0.00 0.00 0.00 48 1008.8
20260505194749 72 193 7.8 13.9 0.00 0.00 0.00 47 1008.8
20260505194719 72 165 7.0 13.9 0.00 0.00 0.00 48 1008.8
20260505194543 72 148 7.0 13.9 0.00 0.00 0.00 48 1008.8
20260505194442 72 193 6.1 13.9 0.00 0.00 0.00 47 1008.8
20260505194341 72 179 5.2 13.9 0.00 0.00 0.00 47 1009.3
20260505194302 72 206 6.1 14.8 0.00 0.00 0.00 47 1009.3
20260505194139 72 198 5.2 14.8 0.00 0.00 0.00 47 1009.3
20260505194038 72 316 6.1 14.8 0.00 0.00 0.00 47 1009.3
20260505193936 72 285 8.7 14.8 0.00 0.00 0.00 48 1009.3
20260505193838 72 267 6.1 14.8 0.00 0.00 0.00 48 1009.3
20260505193736 73 257 3.5 14.8 0.00 0.00 0.00 47 1009.3
20260505193654 73 299 4.3 14.8 0.00 0.00 0.00 47 1009.3
20260505193532 73 253 6.1 14.8 0.00 0.00 0.00 47 1009.3
20260505193430 73 212 9.6 14.8 0.00 0.00 0.00 47 1009.3
20260505193328 73 294 2.6 8.7 0.00 0.00 0.00 47 1009.3
20260505193237 73 326 1.7 8.7 0.00 0.00 0.00 47 1009.3
20260505193147 73 326 5.2 8.7 0.00 0.00 0.00 47 1009.3
20260505193027 73 296 2.6 8.7 0.00 0.00 0.00 47 1009.3
20260505192925 73 304 4.3 8.7 0.00 0.00 0.00 45 1009.3
20260505192843 73 325 3.5 11.3 0.00 0.00 0.00 44 1010.3
20260505192741 73 237 4.3 11.3 0.00 0.00 0.00 44 1010.3
20260505192639 73 329 1.7 11.3 0.00 0.00 0.00 44 1010.3
20260505192538 73 312 3.5 11.3 0.00 0.00 0.00 44 1010.3
20260505192436 73 313 3.5 11.3 0.00 0.00 0.00 44 1010.3
20260505192338 73 301 2.6 11.3 0.00 0.00 0.00 43 1010.3
20260505192237 73 298 3.5 11.3 0.00 0.00 0.00 43 1010.3
20260505192136 73 294 2.6 11.3 0.00 0.00 0.00 43 1010.3
20260505192035 73 189 5.2 11.3 0.00 0.00 0.00 43 1010.3
20260505191933 74 256 6.1 14.8 0.00 0.00 0.00 44 1010.3
20260505191832 74 264 6.1 14.8 0.00 0.00 0.00 44 1010.3
20260505191743 74 277 7.0 14.8 0.00 0.00 0.00 44 1010.3
20260505191657 74 196 3.5 14.8 0.00 0.00 0.00 44 1010.3
20260505191534 74 244 5.2 14.8 0.00 0.00 0.00 43 1010.3
20260505191433 74 298 5.2 14.8 0.00 0.00 0.00 43 1010.3
20260505191332 74 237 3.5 15.6 0.00 0.00 0.00 42 1010.6
20260505191230 74 256 5.2 15.6 0.00 0.00 0.00 41 1010.6
20260505191130 74 294 11.3 15.6 0.00 0.00 0.00 42 1010.6
20260505191030 74 270 8.7 15.6 0.00 0.00 0.00 41 1010.6
20260505190952 74 272 7.0 16.5 0.00 0.00 0.00 42 1010.6
20260505190850 74 291 7.8 16.5 0.00 0.00 0.00 42 1010.6
20260505190727 74 260 6.1 16.5 0.00 0.00 0.00 42 1010.6
20260505190626 74 299 5.2 16.5 0.00 0.00 0.00 42 1010.6
20260505190526 75 318 6.1 16.5 0.00 0.00 0.00 41 1010.6
20260505190425 75 278 7.8 16.5 0.00 0.00 0.00 41 1010.6
20260505190343 75 312 10.4 16.5 0.00 0.00 0.00 41 1010.6
20260505190240 75 304 8.7 16.5 0.00 0.00 0.00 42 1010.6
20260505190148 75 285 6.1 16.5 0.00 0.00 0.00 42 1010.6
20260505190029 75 304 7.0 16.5 0.00 0.00 0.00 43 1010.6
20260505185946 75 292 4.3 15.6 0.00 0.00 0.00 43 1010.6
20260505185843 75 336 6.1 15.6 0.00 0.00 0.00 42 1010.6
20260505185741 75 299 5.2 15.6 0.00 0.00 0.00 42 1010.6
20260505185638 75 236 6.1 16.5 0.00 0.00 0.00 42 1010.6
20260505185537 75 332 5.2 18.2 0.00 0.00 0.00 41 1010.6
20260505185436 75 319 6.1 18.2 0.00 0.00 0.00 41 1010.6
20260505185339 75 281 7.0 18.2 0.00 0.00 0.00 41 1010.6
20260505185237 76 233 8.7 18.2 0.00 0.00 0.00 40 1010.6
20260505185155 76 328 8.7 18.2 0.00 0.00 0.00 40 1010.6
20260505185033 76 312 7.8 18.2 0.00 0.00 0.00 40 1010.6
20260505184932 76 278 10.4 18.2 0.00 0.00 0.00 39 1010.6
20260505184831 76 282 7.8 18.2 0.00 0.00 0.00 40 1010.6
20260505184730 76 296 10.4 18.2 0.00 0.00 0.00 40 1010.6
20260505184658 76 243 7.8 18.2 0.00 0.00 0.00 40 1010.6
20260505184539 76 309 9.6 16.5 0.00 0.00 0.00 39 1010.6
20260505184438 76 325 8.7 18.2 0.00 0.00 0.00 40 1010.6
20260505184336 76 320 11.3 18.2 0.00 0.00 0.00 40 1010.7
20260505184236 76 258 10.4 18.2 0.00 0.00 0.00 39 1010.7
20260505184136 76 272 9.6 18.2 0.00 0.00 0.00 39 1010.7
20260505184034 76 316 11.3 18.2 0.00 0.00 0.00 39 1010.7
20260505183937 76 294 11.3 18.2 0.00 0.00 0.00 40 1010.7
20260505183837 76 301 12.2 18.2 0.00 0.00 0.00 40 1010.7
20260505183754 76 306 13.0 18.2 0.00 0.00 0.00 39 1010.7
20260505183632 76 250 9.6 18.2 0.00 0.00 0.00 39 1010.7
20260505183531 76 275 9.6 15.6 0.00 0.00 0.00 39 1010.7
20260505183429 76 270 7.0 13.9 0.00 0.00 0.00 39 1010.7
20260505183327 76 285 9.6 15.6 0.00 0.00 0.00 40 1010.7
20260505183245 76 284 5.2 15.6 0.00 0.00 0.00 41 1010.7
20260505183202 76 240 7.8 20.9 0.00 0.00 0.00 40 1010.7
20260505183038 76 263 7.0 20.9 0.00 0.00 0.00 41 1010.7
20260505182937 76 291 2.6 20.9 0.00 0.00 0.00 41 1010.7
20260505182855 76 280 6.1 20.9 0.00 0.00 0.00 41 1010.7
20260505182753 76 319 4.3 20.9 0.00 0.00 0.00 39 1010.7
20260505182630 76 257 5.2 20.9 0.00 0.00 0.00 40 1010.7
20260505182528 76 243 10.4 20.9 0.00 0.00 0.00 40 1010.7
20260505182427 76 275 10.4 20.9 0.00 0.00 0.00 40 1010.7
20260505182330 76 312 13.0 20.9 0.00 0.00 0.00 40 1010.7
20260505182228 76 284 7.0 17.4 0.00 0.00 0.00 39 1010.7
20260505182126 76 285 7.0 17.4 0.00 0.00 0.00 40 1010.7
20260505182025 76 263 11.3 17.4 0.00 0.00 0.00 39 1010.7
20260505181928 76 296 12.2 17.4 0.00 0.00 0.00 39 1010.7
20260505181847 76 291 12.2 18.2 0.00 0.00 0.00 40 1010.7
20260505181805 76 237 7.8 18.2 0.00 0.00 0.00 40 1010.7
20260505181714 76 311 6.1 18.2 0.00 0.00 0.00 41 1010.7
20260505181535 76 295 5.2 18.2 0.00 0.00 0.00 41 1010.7
20260505181434 76 296 8.7 18.2 0.00 0.00 0.00 40 1010.7
20260505181331 76 248 7.8 18.2 0.00 0.00 0.00 41 1010.7
20260505181233 76 287 7.0 18.2 0.00 0.00 0.00 40 1010.7
20260505181131 76 315 11.3 18.2 0.00 0.00 0.00 39 1010.7
20260505181029 76 305 11.3 18.2 0.00 0.00 0.00 41 1010.7
20260505180927 75 209 8.7 13.9 0.00 0.00 0.00 42 1010.7
20260505180831 75 295 6.1 13.9 0.00 0.00 0.00 42 1010.7
20260505180731 75 312 4.3 12.2 0.00 0.00 0.00 41 1010.7
20260505180632 75 267 2.6 12.2 0.00 0.00 0.00 41 1010.7
20260505180531 75 237 6.1 12.2 0.00 0.00 0.00 41 1010.7
20260505180429 75 280 6.1 15.6 0.00 0.00 0.00 42 1010.7
20260505180327 75 313 8.7 15.6 0.00 0.00 0.00 42 1010.7
20260505180240 75 265 9.6 15.6 0.00 0.00 0.00 43 1010.7
20260505180150 75 285 7.0 15.6 0.00 0.00 0.00 43 1010.7
20260505180025 75 277 6.1 15.6 0.00 0.00 0.00 42 1010.7
20260505175944 75 280 2.6 15.6 0.00 0.00 0.00 42 1010.7
20260505175841 75 288 3.5 15.6 0.00 0.00 0.00 41 1010.8
20260505175800 75 251 4.3 15.6 0.00 0.00 0.00 41 1010.8
20260505175637 75 260 5.2 15.6 0.00 0.00 0.00 43 1010.8
20260505175536 75 260 8.7 15.6 0.00 0.00 0.00 43 1010.8
20260505175438 75 306 4.3 14.8 0.00 0.00 0.00 44 1010.8
20260505175338 75 306 6.1 16.5 0.00 0.00 0.00 42 1010.8
20260505175239 75 264 7.0 16.5 0.00 0.00 0.00 42 1010.8
20260505175156 75 251 6.1 16.5 0.00 0.00 0.00 41 1010.8
20260505175034 75 247 7.8 16.5 0.00 0.00 0.00 42 1010.8
20260505174953 75 304 7.8 16.5 0.00 0.00 0.00 42 1010.8
20260505174830 75 275 6.1 16.5 0.00 0.00 0.00 41 1010.8
20260505174729 75 263 7.0 16.5 0.00 0.00 0.00 41 1010.8
20260505174657 75 233 5.2 16.5 0.00 0.00 0.00 41 1010.8
20260505174555 75 296 8.7 16.5 0.00 0.00 0.00 40 1010.8
20260505174437 75 281 12.2 16.5 0.00 0.00 0.00 39 1010.8
20260505174355 75 302 8.7 16.5 0.00 0.00 0.00 39 1010.9
20260505174233 75 281 8.7 16.5 0.00 0.00 0.00 40 1010.9
20260505174130 75 272 3.5 16.5 0.00 0.00 0.00 38 1010.9
20260505174049 75 246 6.1 16.5 0.00 0.00 0.00 38 1010.9
20260505173929 75 253 9.6 16.5 0.00 0.00 0.00 38 1010.9
20260505173828 75 229 6.1 14.8 0.00 0.00 0.00 39 1010.9
20260505173726 75 329 6.1 14.8 0.00 0.00 0.00 38 1010.9
20260505173628 76 275 7.0 14.8 0.00 0.00 0.00 40 1010.9
20260505173547 76 247 9.6 14.8 0.00 0.00 0.00 39 1010.9
20260505173426 76 296 7.0 13.9 0.00 0.00 0.00 39 1010.9
20260505173348 76 274 7.8 19.1 0.00 0.00 0.00 38 1010.9
20260505173236 76 227 7.0 19.1 0.00 0.00 0.00 38 1010.9
20260505173147 76 237 7.0 19.1 0.00 0.00 0.00 39 1010.9
20260505173024 76 272 4.3 19.1 0.00 0.00 0.00 38 1010.9
20260505172943 76 296 7.0 19.1 0.00 0.00 0.00 38 1010.9
20260505172825 76 246 7.0 19.1 0.00 0.00 0.00 38 1011.3
20260505172724 76 248 5.2 19.1 0.00 0.00 0.00 37 1011.3
20260505172642 76 280 6.1 19.1 0.00 0.00 0.00 37 1011.3
20260505172540 76 256 11.3 19.1 0.00 0.00 0.00 38 1011.3
20260505172458 76 304 7.8 21.7 0.00 0.00 0.00 38 1011.3
20260505172336 76 285 6.1 21.7 0.00 0.00 0.00 38 1011.3
20260505172236 76 277 10.4 21.7 0.00 0.00 0.00 39 1011.3
20260505172138 76 299 6.1 21.7 0.00 0.00 0.00 38 1011.3
20260505172036 76 318 8.7 24.3 0.00 0.00 0.00 37 1011.3
20260505171935 76 323 7.0 24.3 0.00 0.00 0.00 37 1011.3
20260505171853 75 287 7.0 24.3 0.00 0.00 0.00 38 1011.3
20260505171750 75 315 5.2 24.3 0.00 0.00 0.00 38 1011.3
20260505171720 75 308 8.7 24.3 0.00 0.00 0.00 38 1011.3
20260505171538 75 322 9.6 24.3 0.00 0.00 0.00 39 1011.3
20260505171440 75 264 7.0 24.3 0.00 0.00 0.00 38 1011.3
20260505171359 75 328 8.7 24.3 0.00 0.00 0.00 38 1011.2
20260505171240 75 213 11.3 24.3 0.00 0.00 0.00 37 1011.2
20260505171138 75 291 10.4 24.3 0.00 0.00 0.00 39 1011.2
20260505171057 75 251 7.8 17.4 0.00 0.00 0.00 40 1011.2
20260505170933 75 306 8.7 17.4 0.00 0.00 0.00 39 1011.2
20260505170832 75 253 7.0 17.4 0.00 0.00 0.00 39 1011.2
20260505170730 75 295 9.6 17.4 0.00 0.00 0.00 39 1011.2
20260505170628 75 285 10.4 17.4 0.00 0.00 0.00 39 1011.2
20260505170530 75 237 6.1 17.4 0.00 0.00 0.00 40 1011.2
20260505170449 75 251 9.6 17.4 0.00 0.00 0.00 40 1011.2
20260505170327 75 343 8.7 17.4 0.00 0.00 0.00 40 1011.2
20260505170236 75 265 4.3 17.4 0.00 0.00 0.00 39 1011.2
20260505170147 75 215 7.0 17.4 0.00 0.00 0.00 39 1011.2
20260505170043 75 265 4.3 17.4 0.00 0.00 0.00 40 1011.2
20260505165940 75 212 4.3 17.4 0.00 0.00 0.00 40 1011.2
20260505165839 75 271 7.8 17.4 0.00 0.00 0.00 40 1011.3
20260505165743 75 285 11.3 17.4 0.00 0.00 0.00 39 1011.3
20260505165702 75 270 8.7 17.4 0.00 0.00 0.00 40 1011.3
20260505165541 75 284 8.7 17.4 0.00 0.00 0.00 40 1011.3
20260505165439 75 309 10.4 17.4 0.00 0.00 0.00 40 1011.3
20260505165337 75 239 8.7 17.4 0.00 0.00 0.00 40 1011.3
20260505165255 75 288 9.6 17.4 0.00 0.00 0.00 40 1011.3
20260505165133 75 302 7.8 17.4 0.00 0.00 0.00 40 1011.3
20260505165031 75 289 6.1 17.4 0.00 0.00 0.00 41 1011.3
20260505164936 75 267 10.4 17.4 0.00 0.00 0.00 41 1011.3
20260505164834 75 267 11.3 17.4 0.00 0.00 0.00 42 1011.3
20260505164753 75 288 6.1 17.4 0.00 0.00 0.00 41 1011.3
20260505164724 75 278 7.0 17.4 0.00 0.00 0.00 41 1011.3
20260505164540 74 322 10.4 17.4 0.00 0.00 0.00 42 1011.3
20260505164438 74 236 7.8 16.5 0.00 0.00 0.00 43 1011.3
20260505164336 74 184 6.1 16.5 0.00 0.00 0.00 44 1011.4
20260505164238 74 287 10.4 16.5 0.00 0.00 0.00 43 1011.4
20260505164138 74 295 6.1 15.6 0.00 0.00 0.00 42 1011.4
20260505164036 74 229 8.7 15.6 0.00 0.00 0.00 42 1011.4
20260505163933 74 256 11.3 17.4 0.00 0.00 0.00 42 1011.4
20260505163832 74 254 7.0 20.9 0.00 0.00 0.00 43 1011.4
20260505163751 74 243 5.2 22.6 0.00 0.00 0.00 43 1011.4
20260505163628 74 277 7.0 22.6 0.00 0.00 0.00 43 1011.4
20260505163530 74 309 7.8 22.6 0.00 0.00 0.00 43 1011.4
20260505163428 74 210 7.8 22.6 0.00 0.00 0.00 42 1011.4
20260505163329 74 263 1.7 22.6 0.00 0.00 0.00 42 1011.4
20260505163239 74 239 12.2 22.6 0.00 0.00 0.00 42 1011.4
20260505163150 74 281 9.6 22.6 0.00 0.00 0.00 42 1011.4
20260505163028 74 298 13.9 22.6 0.00 0.00 0.00 42 1011.4
20260505162947 74 311 14.8 22.6 0.00 0.00 0.00 43 1011.4
20260505162825 74 226 7.0 12.2 0.00 0.00 0.00 44 1011.4
20260505162727 74 287 4.3 12.2 0.00 0.00 0.00 44 1011.4
20260505162647 74 302 5.2 12.2 0.00 0.00 0.00 44 1011.4
20260505162544 74 302 6.1 12.2 0.00 0.00 0.00 45 1011.4
20260505162442 74 215 4.3 12.2 0.00 0.00 0.00 46 1011.4
20260505162340 74 265 3.5 14.8 0.00 0.00 0.00 46 1011.4
20260505162239 74 251 5.2 14.8 0.00 0.00 0.00 47 1011.4
20260505162201 74 281 6.1 14.8 0.00 0.00 0.00 47 1011.4
20260505162038 74 263 7.8 14.8 0.00 0.00 0.00 47 1011.4
20260505161940 73 294 6.1 14.8 0.00 0.00 0.00 47 1011.4
20260505161838 73 289 5.2 14.8 0.00 0.00 0.00 47 1011.4
20260505161739 73 268 5.2 14.8 0.00 0.00 0.00 48 1011.4
20260505161709 73 237 7.0 14.8 0.00 0.00 0.00 48 1011.4
20260505161545 73 302 7.8 14.8 0.00 0.00 0.00 48 1011.4
20260505161504 73 285 5.2 14.8 0.00 0.00 0.00 48 1011.4
20260505161342 73 287 5.2 13.0 0.00 0.00 0.00 48 1011.4
20260505161300 73 289 3.5 13.0 0.00 0.00 0.00 47 1011.4
20260505161137 73 277 6.1 13.0 0.00 0.00 0.00 49 1011.4
20260505161040 73 254 6.1 13.0 0.00 0.00 0.00 49 1011.4
20260505160957 73 291 7.0 13.0 0.00 0.00 0.00 49 1011.4
20260505160835 73 302 8.7 13.0 0.00 0.00 0.00 49 1011.4
20260505160734 72 261 6.1 11.3 0.00 0.00 0.00 49 1011.4
20260505160632 72 246 4.3 10.4 0.00 0.00 0.00 50 1011.4
20260505160530 72 254 5.2 9.6 0.00 0.00 0.00 50 1011.4
20260505160428 72 328 2.6 9.6 0.00 0.00 0.00 51 1011.4
20260505160331 72 292 4.3 12.2 0.00 0.00 0.00 51 1011.4
20260505160228 72 284 0.9 12.2 0.00 0.00 0.00 51 1011.4
20260505160158 72 278 3.5 12.2 0.00 0.00 0.00 51 1011.4
20260505153330 69 264 3.5 10.4 0.00 0.00 0.00 55 1011.5
20260505153227 69 198 3.5 9.6 0.00 0.00 0.00 56 1011.5
20260505153158 69 302 5.2 9.6 0.00 0.00 0.00 56 1011.5
20260505153038 69 219 2.6 8.7 0.00 0.00 0.00 56 1011.5
20260505152937 69 240 2.6 8.7 0.00 0.00 0.00 56 1011.5
20260505152834 69 229 4.3 8.7 0.00 0.00 0.00 56 1010.6
20260505152738 69 278 3.5 8.7 0.00 0.00 0.00 56 1010.6
20260505152635 69 275 1.7 8.7 0.00 0.00 0.00 56 1010.6
20260505152534 69 257 1.7 8.7 0.00 0.00 0.00 56 1010.6
20260505152433 69 234 5.2 8.7 0.00 0.00 0.00 56 1010.6
20260505152333 69 261 2.6 8.7 0.00 0.00 0.00 56 1010.6
20260505152230 69 184 3.5 8.7 0.00 0.00 0.00 56 1010.6
20260505152127 68 291 2.6 9.6 0.00 0.00 0.00 57 1010.6
20260505152030 68 188 2.6 9.6 0.00 0.00 0.00 56 1010.6
20260505151949 68 195 4.3 10.4 0.00 0.00 0.00 57 1010.6
20260505151826 68 215 6.1 10.4 0.00 0.00 0.00 56 1010.6
20260505151735 68 251 5.2 10.4 0.00 0.00 0.00 57 1010.6
20260505151645 68 313 3.5 10.4 0.00 0.00 0.00 59 1010.6
20260505151543 68 280 3.5 10.4 0.00 0.00 0.00 59 1010.6
20260505151442 68 278 5.2 10.4 0.00 0.00 0.00 59 1010.6
20260505151325 68 278 6.1 10.4 0.00 0.00 0.00 60 1010.7
20260505151223 68 257 0.9 12.2 0.00 0.00 0.00 60 1010.7
20260505151142 68 294 4.3 12.2 0.00 0.00 0.00 60 1010.7
20260505151102 67 265 5.2 12.2 0.00 0.00 0.00 59 1010.7
20260505150937 67 271 1.7 12.2 0.00 0.00 0.00 59 1010.7
20260505150835 67 263 2.6 12.2 0.00 0.00 0.00 59 1010.7
20260505150733 67 298 4.3 12.2 0.00 0.00 0.00 60 1010.7
20260505150632 67 280 2.6 12.2 0.00 0.00 0.00 60 1010.7
20260505150534 67 288 2.6 12.2 0.00 0.00 0.00 60 1010.7
20260505150453 67 275 6.1 12.2 0.00 0.00 0.00 59 1010.7
20260505150331 67 267 7.8 12.2 0.00 0.00 0.00 59 1010.7
20260505150241 67 318 6.1 12.2 0.00 0.00 0.00 60 1010.7
20260505150151 67 316 6.1 12.2 0.00 0.00 0.00 60 1010.7
20260505140637 63 329 4.3 14.8 0.00 0.00 0.00 65 1011.0
20260505140535 63 311 7.8 14.8 0.00 0.00 0.00 65 1011.0
20260505140433 63 268 6.1 14.8 0.00 0.00 0.00 65 1011.0
20260505140331 63 323 7.0 14.8 0.00 0.00 0.00 65 1011.0
20260505140241 63 325 5.2 14.8 0.00 0.00 0.00 65 1011.0
20260505140151 63 284 8.7 14.8 0.00 0.00 0.00 66 1011.0
20260505130238 60 240 8.7 18.2 0.00 0.00 0.00 69 1010.6
20260505130147 60 270 12.2 18.2 0.00 0.00 0.00 69 1010.6
20260505125033 60 256 7.0 17.4 0.00 0.00 0.00 69 1010.4
20260505124951 60 253 11.3 18.2 0.00 0.00 0.00 69 1010.4
20260505124828 60 302 7.8 18.2 0.00 0.00 0.00 69 1010.4
20260505124738 60 257 13.0 18.2 0.00 0.00 0.00 69 1010.4
20260505124647 60 272 7.0 18.2 0.00 0.00 0.00 69 1010.4
20260505124544 60 275 7.8 18.2 0.00 0.00 0.00 69 1010.4
20260505124425 60 298 8.7 18.2 0.00 0.00 0.00 69 1010.4
20260505124345 60 265 9.6 18.2 0.00 0.00 0.00 69 1010.5
20260505124302 60 330 9.6 18.2 0.00 0.00 0.00 69 1010.5
20260505124140 60 253 12.2 18.2 0.00 0.00 0.00 70 1010.5
20260505124037 60 282 12.2 18.2 0.00 0.00 0.00 70 1010.5
20260505123937 60 280 7.8 17.4 0.00 0.00 0.00 70 1010.5
20260505123835 59 258 12.2 17.4 0.00 0.00 0.00 70 1010.5
20260505123734 59 272 9.6 17.4 0.00 0.00 0.00 70 1010.5
20260505123636 59 278 8.7 17.4 0.00 0.00 0.00 70 1010.5
20260505123534 59 246 8.7 17.4 0.00 0.00 0.00 70 1010.5
20260505123453 59 268 9.6 17.4 0.00 0.00 0.00 70 1010.5
20260505123331 59 288 11.3 17.4 0.00 0.00 0.00 70 1010.5
20260505123301 59 271 8.7 17.4 0.00 0.00 0.00 70 1010.5
20260505123150 59 306 5.2 17.4 0.00 0.00 0.00 70 1010.5
20260505123046 59 257 4.3 17.4 0.00 0.00 0.00 70 1010.5
20260505123004 59 230 5.2 17.4 0.00 0.00 0.00 70 1010.5
20260505122826 59 257 9.6 17.4 0.00 0.00 0.00 70 1010.4
20260505122725 59 281 7.0 17.4 0.00 0.00 0.00 70 1010.4
20260505122644 59 264 9.6 17.4 0.00 0.00 0.00 70 1010.4
20260505122601 59 268 8.7 17.4 0.00 0.00 0.00 70 1010.4
20260505122438 59 261 9.6 17.4 0.00 0.00 0.00 70 1010.4
20260505122337 59 281 12.2 17.4 0.00 0.00 0.00 70 1010.4
20260505122255 59 274 9.6 15.6 0.00 0.00 0.00 70 1010.4
20260505122131 59 176 9.6 15.6 0.00 0.00 0.00 71 1010.4
20260505122051 59 233 8.7 15.6 0.00 0.00 0.00 71 1010.4
20260505121932 59 319 11.3 15.6 0.00 0.00 0.00 70 1010.4
20260505121831 59 237 7.0 15.6 0.00 0.00 0.00 70 1010.4
20260505121740 59 205 9.6 15.6 0.00 0.00 0.00 70 1010.4
20260505121648 59 220 7.8 15.6 0.00 0.00 0.00 70 1010.4
20260505121525 59 261 9.6 15.6 0.00 0.00 0.00 70 1010.4
20260505121443 59 263 8.7 15.6 0.00 0.00 0.00 70 1010.4
20260505121342 59 233 8.7 15.6 0.00 0.00 0.00 70 1010.0
20260505121225 59 265 10.4 15.6 0.00 0.00 0.00 70 1010.0
20260505121124 59 232 11.3 15.6 0.00 0.00 0.00 70 1010.0
20260505121042 59 215 8.7 17.4 0.00 0.00 0.00 70 1010.0
20260505121000 59 265 8.7 17.4 0.00 0.00 0.00 70 1010.0
20260505120838 59 236 11.3 17.4 0.00 0.00 0.00 70 1010.0
20260505120737 59 268 6.1 17.4 0.00 0.00 0.00 70 1010.0
20260505120634 59 260 9.6 17.4 0.00 0.00 0.00 70 1010.0
20260505120533 59 230 11.3 17.4 0.00 0.00 0.00 69 1010.0
20260505120435 59 234 7.8 17.4 0.00 0.00 0.00 69 1010.0
20260505120354 59 224 8.7 18.2 0.00 0.00 0.00 69 1010.0
20260505120231 59 244 10.4 18.2 0.00 0.00 0.00 69 1010.0
20260505120203 59 258 8.7 18.2 0.00 0.00 0.00 69 1010.0
20260505120040 59 274 8.7 18.2 0.00 0.00 0.00 69 1010.0
20260505115958 59 251 7.8 18.2 0.00 0.00 0.00 69 1010.0
20260505115838 59 254 8.7 19.1 0.00 0.00 0.00 69 1009.8
20260505115735 59 264 8.7 19.1 0.00 0.00 0.00 69 1009.8
20260505115658 59 241 8.7 19.1 0.00 0.00 0.00 69 1009.8
20260505115536 59 241 11.3 19.1 0.00 0.00 0.00 69 1009.8
20260505115434 59 267 7.0 19.1 0.00 0.00 0.00 69 1009.8
20260505115333 59 267 10.4 19.1 0.00 0.00 0.00 69 1009.8
20260505115230 59 244 7.0 19.1 0.00 0.00 0.00 69 1009.8
20260505115129 59 241 8.7 19.1 0.00 0.00 0.00 69 1009.8
20260505115028 59 256 11.3 19.1 0.00 0.00 0.00 69 1009.8
20260505114930 59 253 10.4 17.4 0.00 0.00 0.00 69 1009.8
20260505114828 59 257 12.2 17.4 0.00 0.00 0.00 69 1009.8
20260505114737 59 240 12.2 17.4 0.00 0.00 0.00 69 1009.8
20260505114646 59 253 8.7 17.4 0.00 0.00 0.00 69 1009.8
20260505114544 59 258 9.6 17.4 0.00 0.00 0.00 69 1009.8
20260505114504 59 268 12.2 17.4 0.00 0.00 0.00 69 1009.8
20260505114404 59 248 11.3 17.4 0.00 0.00 0.00 69 1009.4
20260505114302 59 261 8.7 17.4 0.00 0.00 0.00 68 1009.4
20260505114139 59 254 9.6 17.4 0.00 0.00 0.00 68 1009.4
20260505114041 59 271 13.0 17.4 0.00 0.00 0.00 68 1009.4
20260505113939 59 305 10.4 17.4 0.00 0.00 0.00 68 1009.4
20260505113857 59 277 8.7 17.4 0.00 0.00 0.00 68 1009.4
20260505113735 59 244 10.4 17.4 0.00 0.00 0.00 68 1009.4
20260505113635 59 240 11.3 18.2 0.00 0.00 0.00 68 1009.4
20260505113533 59 278 9.6 18.2 0.00 0.00 0.00 68 1009.4
20260505113431 59 281 7.8 18.2 0.00 0.00 0.00 68 1009.4
20260505113334 59 234 12.2 19.1 0.00 0.00 0.00 68 1009.4
20260505113304 59 277 10.4 19.1 0.00 0.00 0.00 68 1009.4
20260505113152 59 277 6.1 19.1 0.00 0.00 0.00 68 1009.4
20260505113029 59 260 10.4 19.1 0.00 0.00 0.00 68 1009.4
20260505112929 59 289 10.4 19.1 0.00 0.00 0.00 68 1009.4
20260505112828 59 268 14.8 19.1 0.00 0.00 0.00 68 1009.4
20260505112725 59 264 13.0 19.1 0.00 0.00 0.00 68 1009.4
20260505112626 59 256 7.0 19.1 0.00 0.00 0.00 68 1009.4
20260505112528 59 237 10.4 19.1 0.00 0.00 0.00 68 1009.4
20260505112451 59 294 8.7 19.1 0.00 0.00 0.00 68 1009.4
20260505112328 59 267 7.0 16.5 0.00 0.00 0.00 68 1009.4
20260505112226 59 240 12.2 16.5 0.00 0.00 0.00 68 1009.4
20260505112125 59 281 9.6 16.5 0.00 0.00 0.00 68 1009.4
20260505112042 59 188 10.4 18.2 0.00 0.00 0.00 68 1009.4
20260505111943 59 280 8.7 18.2 0.00 0.00 0.00 68 1009.4
20260505111826 59 270 8.7 18.2 0.00 0.00 0.00 68 1009.4
20260505111745 59 285 11.3 18.2 0.00 0.00 0.00 68 1009.4
20260505111653 59 277 9.6 18.2 0.00 0.00 0.00 68 1009.4
20260505111531 59 301 7.8 18.2 0.00 0.00 0.00 68 1009.4
20260505111429 59 264 10.4 18.2 0.00 0.00 0.00 68 1009.4
20260505111349 59 272 9.6 18.2 0.00 0.00 0.00 68 1009.1
20260505111227 59 264 10.4 18.2 0.00 0.00 0.00 68 1009.1
20260505111125 59 244 11.3 18.2 0.00 0.00 0.00 67 1009.1
20260505111047 59 309 8.7 18.2 0.00 0.00 0.00 67 1009.1
20260505110945 59 244 7.8 18.2 0.00 0.00 0.00 67 1009.1
20260505110903 59 298 8.7 18.2 0.00 0.00 0.00 67 1009.1
20260505110740 59 308 10.4 18.2 0.00 0.00 0.00 67 1009.1
20260505110632 59 318 9.6 16.5 0.00 0.00 0.00 67 1009.1
20260505110531 59 226 10.4 17.4 0.00 0.00 0.00 67 1009.1
20260505110432 59 265 11.3 17.4 0.00 0.00 0.00 67 1009.1
20260505110351 59 277 10.4 17.4 0.00 0.00 0.00 67 1009.1
20260505110231 59 265 7.8 17.4 0.00 0.00 0.00 67 1009.1
20260505110202 59 254 7.8 17.4 0.00 0.00 0.00 67 1009.1
20260505102138 60 270 11.3 18.2 0.00 0.00 0.00 65 1008.5
20260505102036 60 277 9.6 18.2 0.00 0.00 0.00 64 1008.5
20260505101935 60 256 7.8 18.2 0.00 0.00 0.00 64 1008.5
20260505101834 60 295 10.4 18.2 0.00 0.00 0.00 64 1008.5
20260505101732 60 267 9.6 18.2 0.00 0.00 0.00 64 1008.5
20260505101703 60 292 11.3 18.2 0.00 0.00 0.00 64 1008.5
20260505101525 60 326 9.6 19.1 0.00 0.00 0.00 64 1008.5
20260505101425 60 309 11.3 19.1 0.00 0.00 0.00 64 1008.5
20260505101323 60 322 8.7 19.1 0.00 0.00 0.00 64 1008.5
20260505101242 60 306 11.3 19.1 0.00 0.00 0.00 64 1008.5
20260505101140 60 301 10.4 19.1 0.00 0.00 0.00 64 1008.5
20260505101039 60 257 9.6 19.1 0.00 0.00 0.00 64 1008.5
20260505100938 60 258 10.4 19.1 0.00 0.00 0.00 63 1008.5
20260505100840 60 312 9.6 19.1 0.00 0.00 0.00 63 1008.5
20260505100759 60 296 12.2 19.1 0.00 0.00 0.00 63 1008.5
20260505100635 60 281 10.4 19.1 0.00 0.00 0.00 63 1008.5
20260505100539 60 251 9.6 19.1 0.00 0.00 0.00 63 1008.5
20260505100458 60 243 10.4 19.1 0.00 0.00 0.00 63 1008.5
20260505100418 60 251 8.7 19.1 0.00 0.00 0.00 63 1008.5
20260505100317 60 289 7.8 19.1 0.00 0.00 0.00 63 1008.5
20260505100228 60 244 11.3 22.6 0.00 0.00 0.00 63 1008.5
20260505100104 60 294 11.3 22.6 0.00 0.00 0.00 63 1008.5
20260505095925 60 258 12.2 23.5 0.00 0.00 0.00 63 1008.5
20260505095824 60 272 8.7 23.5 0.00 0.00 0.00 63 1008.2
20260505095742 60 246 11.3 23.5 0.00 0.00 0.00 63 1008.2
20260505095700 60 234 11.3 23.5 0.00 0.00 0.00 63 1008.2
20260505095558 61 270 11.3 23.5 0.00 0.00 0.00 62 1008.2
20260505095435 61 292 11.3 23.5 0.00 0.00 0.00 62 1008.2
20260505095353 61 209 13.0 23.5 0.00 0.00 0.00 62 1008.2
20260505095231 61 265 10.4 23.5 0.00 0.00 0.00 63 1008.2
20260505095129 61 308 12.2 23.5 0.00 0.00 0.00 62 1008.2
20260505095032 61 288 9.6 17.4 0.00 0.00 0.00 62 1008.2
20260505094931 61 282 10.4 17.4 0.00 0.00 0.00 62 1008.2
20260505094829 61 274 13.0 17.4 0.00 0.00 0.00 62 1008.2
20260505094739 61 274 8.7 17.4 0.00 0.00 0.00 62 1008.2
20260505094648 61 216 11.3 17.4 0.00 0.00 0.00 62 1008.2
20260505094526 61 309 9.6 21.7 0.00 0.00 0.00 62 1008.2
20260505094426 61 216 12.2 21.7 0.00 0.00 0.00 62 1008.2
20260505094328 61 288 7.0 21.7 0.00 0.00 0.00 62 1008.0
20260505094225 61 243 12.2 21.7 0.00 0.00 0.00 62 1008.0
20260505094124 61 227 10.4 21.7 0.00 0.00 0.00 62 1008.0
20260505094043 61 275 8.7 21.7 0.00 0.00 0.00 62 1008.0
20260505094001 61 289 10.4 21.7 0.00 0.00 0.00 62 1008.0
20260505093838 61 311 9.6 21.7 0.00 0.00 0.00 61 1008.0
20260505093738 61 199 11.3 24.3 0.00 0.00 0.00 62 1008.0
20260505093639 61 296 10.4 24.3 0.00 0.00 0.00 61 1008.0
20260505093538 61 285 12.2 24.3 0.00 0.00 0.00 61 1008.0
20260505093456 61 318 12.2 24.3 0.00 0.00 0.00 61 1008.0
20260505093352 61 306 14.8 24.3 0.00 0.00 0.00 61 1008.0
20260505093301 61 285 9.6 24.3 0.00 0.00 0.00 61 1008.0
20260505093150 61 189 9.6 24.3 0.00 0.00 0.00 60 1008.0
20260505093024 61 260 9.6 24.3 0.00 0.00 0.00 60 1008.0
20260505092942 61 223 11.3 24.3 0.00 0.00 0.00 60 1008.0
20260505092841 61 299 12.2 24.3 0.00 0.00 0.00 60 1008.1
20260505092724 61 258 10.4 22.6 0.00 0.00 0.00 60 1008.1
20260505092642 61 299 10.4 22.6 0.00 0.00 0.00 60 1008.1
20260505092540 61 298 12.2 22.6 0.00 0.00 0.00 60 1008.1
20260505092458 61 318 12.2 22.6 0.00 0.00 0.00 60 1008.1
20260505092336 61 193 7.8 22.6 0.00 0.00 0.00 60 1008.1
20260505092234 61 325 9.6 22.6 0.00 0.00 0.00 60 1008.1
20260505092151 61 243 12.2 22.6 0.00 0.00 0.00 60 1008.1
20260505092029 61 264 7.8 21.7 0.00 0.00 0.00 60 1008.1
20260505091932 62 308 9.6 21.7 0.00 0.00 0.00 59 1008.1
20260505091829 62 250 11.3 21.7 0.00 0.00 0.00 59 1008.1
20260505091738 62 298 9.6 22.6 0.00 0.00 0.00 59 1008.1
20260505091648 62 256 10.4 22.6 0.00 0.00 0.00 59 1008.1
20260505091546 62 251 13.0 22.6 0.00 0.00 0.00 59 1008.1
20260505091505 62 272 12.2 22.6 0.00 0.00 0.00 59 1008.1
20260505091401 62 268 13.0 22.6 0.00 0.00 0.00 59 1008.9
20260505091258 62 230 13.0 22.6 0.00 0.00 0.00 59 1008.9
20260505091136 62 239 12.2 22.6 0.00 0.00 0.00 59 1008.9
20260505091039 62 287 11.3 22.6 0.00 0.00 0.00 59 1008.9
20260505090937 62 274 13.9 22.6 0.00 0.00 0.00 59 1008.9
20260505090835 62 189 9.6 21.7 0.00 0.00 0.00 58 1008.9
20260505090753 62 258 8.7 21.7 0.00 0.00 0.00 58 1008.9
20260505090631 62 227 12.2 21.7 0.00 0.00 0.00 58 1008.9
20260505090529 62 263 11.3 21.7 0.00 0.00 0.00 58 1008.9
20260505090427 62 220 10.4 21.7 0.00 0.00 0.00 58 1008.9
20260505090329 62 301 13.9 21.7 0.00 0.00 0.00 58 1008.9
20260505090249 62 278 9.6 21.7 0.00 0.00 0.00 58 1008.9
20260505090157 62 301 9.6 21.7 0.00 0.00 0.00 58 1008.9
20260505090034 62 230 10.4 21.7 0.00 0.00 0.00 58 1008.9
20260505085934 62 240 7.0 20.9 0.00 0.00 0.00 58 1008.9
20260505085852 62 254 10.4 20.9 0.00 0.00 0.00 58 1009.2
20260505085750 62 270 11.3 20.9 0.00 0.00 0.00 58 1009.2
20260505085647 62 275 12.2 20.9 0.00 0.00 0.00 58 1009.2
20260505085545 62 302 13.0 20.9 0.00 0.00 0.00 58 1009.2
20260505085443 62 313 12.2 20.9 0.00 0.00 0.00 57 1009.2
20260505085325 62 270 11.3 19.1 0.00 0.00 0.00 57 1009.2
20260505085244 62 260 10.4 19.1 0.00 0.00 0.00 57 1009.2
20260505085142 62 210 10.4 20.9 0.00 0.00 0.00 57 1009.2
20260505085040 62 277 12.2 20.9 0.00 0.00 0.00 57 1009.2
20260505084959 62 220 11.3 20.9 0.00 0.00 0.00 57 1009.2
20260505084856 62 256 12.2 20.9 0.00 0.00 0.00 57 1009.2
20260505084734 62 251 13.0 20.9 0.00 0.00 0.00 57 1009.2
20260505084703 62 263 11.3 20.9 0.00 0.00 0.00 57 1009.2
20260505084526 62 271 11.3 20.9 0.00 0.00 0.00 57 1009.2
20260505084424 62 248 6.1 22.6 0.00 0.00 0.00 57 1009.2
20260505084324 62 271 13.0 22.6 0.00 0.00 0.00 57 1009.2
20260505084243 62 248 9.6 22.6 0.00 0.00 0.00 57 1009.2
20260505084141 62 274 10.4 22.6 0.00 0.00 0.00 56 1009.2
20260505084100 62 275 10.4 22.6 0.00 0.00 0.00 56 1009.2
20260505083937 62 296 13.0 22.6 0.00 0.00 0.00 56 1009.2
20260505083839 62 277 11.3 22.6 0.00 0.00 0.00 56 1009.2
20260505083738 62 265 13.0 22.6 0.00 0.00 0.00 56 1009.2
20260505083636 62 261 11.3 22.6 0.00 0.00 0.00 56 1009.2
20260505083535 62 239 10.4 17.4 0.00 0.00 0.00 56 1009.2
20260505083434 62 284 13.9 18.2 0.00 0.00 0.00 56 1009.2
20260505083352 62 237 11.3 19.1 0.00 0.00 0.00 56 1009.2
20260505083242 62 243 7.8 20.9 0.00 0.00 0.00 56 1009.2
20260505083151 62 306 11.3 20.9 0.00 0.00 0.00 56 1009.2
20260505083032 63 264 9.6 20.9 0.00 0.00 0.00 55 1009.2
20260505082930 63 253 13.0 20.9 0.00 0.00 0.00 55 1009.2
20260505082829 63 232 10.4 20.9 0.00 0.00 0.00 55 1009.3
20260505082746 63 234 9.6 20.9 0.00 0.00 0.00 55 1009.3
20260505082643 63 326 8.7 20.9 0.00 0.00 0.00 55 1009.3
20260505082542 63 284 11.3 20.9 0.00 0.00 0.00 54 1009.3
20260505082440 63 270 12.2 20.9 0.00 0.00 0.00 54 1009.3
20260505082342 63 270 7.8 19.1 0.00 0.00 0.00 54 1009.3
20260505082239 63 257 8.7 19.1 0.00 0.00 0.00 54 1009.3
20260505082138 63 215 9.6 19.1 0.00 0.00 0.00 54 1009.3
20260505082036 63 278 11.3 19.1 0.00 0.00 0.00 54 1009.3
20260505081935 63 224 10.4 19.1 0.00 0.00 0.00 54 1009.3
20260505081853 63 289 12.2 19.1 0.00 0.00 0.00 54 1009.3
20260505081731 63 232 7.0 18.2 0.00 0.00 0.00 54 1009.3
20260505081700 63 287 8.7 18.2 0.00 0.00 0.00 54 1009.3
20260505081538 63 247 8.7 17.4 0.00 0.00 0.00 53 1009.3
20260505081439 63 247 11.3 17.4 0.00 0.00 0.00 53 1009.3
20260505081338 63 274 8.7 21.7 0.00 0.00 0.00 53 1009.3
20260505081236 63 328 7.8 21.7 0.00 0.00 0.00 53 1009.3
20260505081133 63 295 11.3 21.7 0.00 0.00 0.00 53 1009.3
20260505081032 63 288 9.6 21.7 0.00 0.00 0.00 53 1009.3
20260505080931 63 230 12.2 21.7 0.00 0.00 0.00 53 1009.3
20260505080849 63 250 9.6 21.7 0.00 0.00 0.00 53 1009.3
20260505080730 63 193 7.8 21.7 0.00 0.00 0.00 53 1009.3
20260505080628 63 254 10.4 21.7 0.00 0.00 0.00 53 1009.3
20260505080527 63 265 11.3 21.7 0.00 0.00 0.00 53 1009.3
20260505080425 63 233 10.4 19.1 0.00 0.00 0.00 53 1009.3
20260505080326 63 250 10.4 19.1 0.00 0.00 0.00 53 1009.3
20260505080236 63 268 11.3 19.1 0.00 0.00 0.00 52 1009.3
20260505080147 63 271 11.3 19.1 0.00 0.00 0.00 52 1009.3
20260505080044 63 246 14.8 19.1 0.00 0.00 0.00 52 1009.3
20260505075944 64 274 14.8 19.1 0.00 0.00 0.00 52 1009.3
20260505075901 64 272 13.9 19.1 0.00 0.00 0.00 52 1009.6
20260505075738 64 260 10.4 19.1 0.00 0.00 0.00 52 1009.6
20260505075638 64 256 7.8 19.1 0.00 0.00 0.00 52 1009.6
20260505075536 64 271 10.4 19.1 0.00 0.00 0.00 52 1009.6
20260505075434 64 206 11.3 19.1 0.00 0.00 0.00 52 1009.6
20260505075333 64 267 9.6 19.1 0.00 0.00 0.00 51 1009.6
20260505075230 64 304 9.6 19.1 0.00 0.00 0.00 51 1009.6
20260505075136 64 250 9.6 19.1 0.00 0.00 0.00 51 1009.6
20260505075055 64 292 12.2 19.1 0.00 0.00 0.00 51 1009.6
20260505074952 64 264 13.0 19.1 0.00 0.00 0.00 51 1009.6
20260505074829 64 270 9.6 18.2 0.00 0.00 0.00 51 1009.6
20260505074738 64 270 13.0 18.2 0.00 0.00 0.00 51 1009.6
20260505074647 64 272 9.6 18.2 0.00 0.00 0.00 51 1009.6
20260505074545 64 284 8.7 18.2 0.00 0.00 0.00 51 1009.6
20260505074504 64 288 10.4 18.2 0.00 0.00 0.00 51 1009.6
20260505074401 64 224 10.4 20.9 0.00 0.00 0.00 51 1009.7
20260505074243 64 274 11.3 22.6 0.00 0.00 0.00 50 1009.7
20260505074142 64 302 13.0 22.6 0.00 0.00 0.00 50 1009.7
20260505074040 64 274 13.0 22.6 0.00 0.00 0.00 50 1009.7
20260505073939 64 332 10.4 22.6 0.00 0.00 0.00 50 1009.7
20260505073838 64 206 12.2 22.6 0.00 0.00 0.00 50 1009.7
20260505073757 64 272 11.3 22.6 0.00 0.00 0.00 50 1009.7
20260505073634 64 308 8.7 22.6 0.00 0.00 0.00 50 1009.7
20260505073539 64 263 11.3 22.6 0.00 0.00 0.00 50 1009.7
20260505073438 64 285 16.5 22.6 0.00 0.00 0.00 50 1009.7
20260505073336 64 264 9.6 21.7 0.00 0.00 0.00 50 1009.7
20260505073235 64 247 10.4 21.7 0.00 0.00 0.00 50 1009.7
20260505073207 64 234 13.0 21.7 0.00 0.00 0.00 50 1009.7
20260505073043 64 258 13.0 21.7 0.00 0.00 0.00 49 1009.7
20260505072940 64 268 10.4 21.7 0.00 0.00 0.00 49 1009.7
20260505072824 64 267 13.0 21.7 0.00 0.00 0.00 49 1009.6
20260505072743 64 234 11.3 21.7 0.00 0.00 0.00 49 1009.6
20260505072642 64 304 9.6 21.7 0.00 0.00 0.00 49 1009.6
20260505072541 64 246 9.6 21.7 0.00 0.00 0.00 49 1009.6
20260505072500 64 292 7.0 21.7 0.00 0.00 0.00 49 1009.6
20260505072359 64 315 8.7 21.7 0.00 0.00 0.00 49 1009.6
20260505072237 64 270 10.4 21.7 0.00 0.00 0.00 49 1009.6
20260505072135 64 275 7.8 21.7 0.00 0.00 0.00 49 1009.6
20260505072032 64 272 7.8 21.7 0.00 0.00 0.00 50 1009.6
20260505071935 64 282 10.4 18.2 0.00 0.00 0.00 49 1009.6
20260505071833 64 271 11.3 18.2 0.00 0.00 0.00 49 1009.6
20260505071742 64 260 9.6 18.2 0.00 0.00 0.00 50 1009.6
20260505071652 64 278 8.7 18.2 0.00 0.00 0.00 49 1009.6
20260505071528 64 278 9.6 22.6 0.00 0.00 0.00 49 1009.6
20260505071445 64 292 12.2 22.6 0.00 0.00 0.00 49 1009.6
20260505071404 64 271 11.3 22.6 0.00 0.00 0.00 49 1009.8
20260505071242 64 278 12.2 22.6 0.00 0.00 0.00 49 1009.8
20260505071144 64 294 13.0 22.6 0.00 0.00 0.00 49 1009.8
20260505071103 64 248 13.0 22.6 0.00 0.00 0.00 49 1009.8
20260505070939 64 284 10.4 22.6 0.00 0.00 0.00 49 1009.8
20260505070858 64 246 13.9 22.6 0.00 0.00 0.00 49 1009.8
20260505070755 64 244 13.0 22.6 0.00 0.00 0.00 49 1009.8
20260505070654 64 313 12.2 22.6 0.00 0.00 0.00 49 1009.8
20260505070531 64 320 13.0 21.7 0.00 0.00 0.00 49 1009.8
20260505070429 64 302 12.2 21.7 0.00 0.00 0.00 49 1009.8
20260505070347 64 289 13.0 21.7 0.00 0.00 0.00 49 1009.8
20260505070245 64 308 12.2 21.7 0.00 0.00 0.00 49 1009.8
20260505070157 64 313 9.6 21.7 0.00 0.00 0.00 49 1009.8
20260505070058 64 304 9.6 21.7 0.00 0.00 0.00 49 1009.8
20260505065940 64 287 11.3 21.7 0.00 0.00 0.00 49 1009.8
20260505065838 64 296 13.9 21.7 0.00 0.00 0.00 49 1009.8
20260505065756 64 322 13.9 21.7 0.00 0.00 0.00 50 1009.8
20260505065634 64 277 10.4 18.2 0.00 0.00 0.00 50 1009.8
20260505065532 64 295 8.7 21.7 0.00 0.00 0.00 50 1009.8
20260505065430 64 291 10.4 21.7 0.00 0.00 0.00 50 1009.8
20260505065332 64 309 8.7 21.7 0.00 0.00 0.00 50 1009.8
20260505065231 64 316 11.3 21.7 0.00 0.00 0.00 50 1009.8
20260505065129 64 309 10.4 21.7 0.00 0.00 0.00 50 1009.8
20260505065028 64 250 7.0 21.7 0.00 0.00 0.00 50 1009.8
20260505064927 64 305 9.6 21.7 0.00 0.00 0.00 50 1009.8
20260505064829 64 308 11.3 21.7 0.00 0.00 0.00 50 1009.8
20260505064727 64 285 13.0 21.7 0.00 0.00 0.00 50 1009.8
20260505064701 64 268 14.8 21.7 0.00 0.00 0.00 50 1009.8
20260505064559 64 292 14.8 22.6 0.00 0.00 0.00 50 1009.8
20260505064436 64 274 13.9 22.6 0.00 0.00 0.00 50 1009.8
20260505064353 64 285 12.2 22.6 0.00 0.00 0.00 50 1009.9
20260505064251 64 267 9.6 22.6 0.00 0.00 0.00 50 1009.9
20260505064128 64 232 9.6 22.6 0.00 0.00 0.00 50 1009.9
20260505064026 64 264 11.3 22.6 0.00 0.00 0.00 50 1009.9
20260505063926 64 291 13.0 22.6 0.00 0.00 0.00 50 1009.9
20260505063831 64 281 12.2 22.6 0.00 0.00 0.00 50 1009.9
20260505063730 64 236 12.2 22.6 0.00 0.00 0.00 50 1009.9
20260505063629 64 296 11.3 21.7 0.00 0.00 0.00 50 1009.9
20260505063528 64 284 14.8 21.7 0.00 0.00 0.00 50 1009.9
20260505063426 64 196 7.0 20.9 0.00 0.00 0.00 50 1009.9
20260505063324 64 268 10.4 20.9 0.00 0.00 0.00 50 1009.9
20260505063233 64 198 11.3 20.9 0.00 0.00 0.00 51 1009.9
20260505063147 64 209 13.9 24.3 0.00 0.00 0.00 50 1009.9
20260505063024 64 224 13.0 24.3 0.00 0.00 0.00 50 1009.9
20260505062943 64 268 12.2 24.3 0.00 0.00 0.00 50 1009.9
20260505062841 64 217 9.6 24.3 0.00 0.00 0.00 51 1010.0
20260505062738 64 265 8.7 24.3 0.00 0.00 0.00 51 1010.0
20260505062636 64 298 11.3 24.3 0.00 0.00 0.00 50 1010.0
20260505062534 64 264 8.7 24.3 0.00 0.00 0.00 50 1010.0
20260505062438 64 275 8.7 24.3 0.00 0.00 0.00 51 1010.0
20260505062337 64 274 10.4 24.3 0.00 0.00 0.00 50 1010.0
20260505062235 64 312 13.9 24.3 0.00 0.00 0.00 50 1010.0
20260505062133 64 237 10.4 22.6 0.00 0.00 0.00 51 1010.0
20260505062033 64 241 10.4 22.6 0.00 0.00 0.00 51 1010.0
20260505061930 64 289 12.2 22.6 0.00 0.00 0.00 51 1010.0
20260505061828 64 265 10.4 22.6 0.00 0.00 0.00 51 1010.0
20260505061751 64 254 11.3 22.6 0.00 0.00 0.00 50 1010.0
20260505061659 64 271 11.3 22.6 0.00 0.00 0.00 50 1010.0
20260505061541 64 312 13.0 22.6 0.00 0.00 0.00 51 1010.0
20260505061439 64 243 12.2 22.6 0.00 0.00 0.00 51 1010.0
20260505061338 64 301 14.8 22.6 0.00 0.00 0.00 50 1010.0
20260505061236 64 311 13.0 22.6 0.00 0.00 0.00 50 1010.0
20260505061135 64 232 7.0 22.6 0.00 0.00 0.00 51 1010.0
20260505061037 64 240 8.7 22.6 0.00 0.00 0.00 51 1010.0
20260505060935 64 289 12.2 22.6 0.00 0.00 0.00 51 1010.0
20260505060854 64 302 16.5 22.6 0.00 0.00 0.00 50 1010.0
20260505060733 64 287 11.3 22.6 0.00 0.00 0.00 50 1010.0
20260505060632 64 288 11.3 22.6 0.00 0.00 0.00 51 1010.0
20260505060532 64 275 13.9 22.6 0.00 0.00 0.00 51 1010.0
20260505060431 64 298 11.3 22.6 0.00 0.00 0.00 50 1010.0
20260505060349 64 247 10.4 22.6 0.00 0.00 0.00 51 1010.0
20260505060243 64 289 14.8 22.6 0.00 0.00 0.00 50 1010.0
20260505060154 64 264 13.9 22.6 0.00 0.00 0.00 51 1010.0
20260505060030 64 253 12.2 21.7 0.00 0.00 0.00 51 1010.0
20260505055948 64 295 12.2 21.7 0.00 0.00 0.00 51 1010.0
20260505055825 64 212 11.3 21.7 0.00 0.00 0.00 51 1010.1
20260505055743 64 301 12.2 21.7 0.00 0.00 0.00 51 1010.1
20260505055641 64 250 10.4 19.1 0.00 0.00 0.00 51 1010.1
20260505055538 64 246 12.2 19.1 0.00 0.00 0.00 51 1010.1
20260505055441 64 241 11.3 19.1 0.00 0.00 0.00 51 1010.1
20260505055340 64 289 8.7 19.1 0.00 0.00 0.00 51 1010.1
20260505055238 64 294 11.3 18.2 0.00 0.00 0.00 51 1010.1
20260505055157 64 271 8.7 18.2 0.00 0.00 0.00 51 1010.1
20260505055034 64 261 9.6 19.1 0.00 0.00 0.00 51 1010.1
20260505054932 64 287 12.2 19.1 0.00 0.00 0.00 51 1010.1
20260505054830 64 223 10.4 20.9 0.00 0.00 0.00 51 1010.1
20260505054752 64 270 9.6 20.9 0.00 0.00 0.00 51 1010.1
20260505054720 64 332 9.6 20.9 0.00 0.00 0.00 51 1010.1
20260505054537 64 217 9.6 20.9 0.00 0.00 0.00 52 1010.1
20260505054436 64 227 8.7 20.9 0.00 0.00 0.00 51 1010.1
20260505054335 64 291 9.6 20.9 0.00 0.00 0.00 51 1010.2
20260505054233 64 282 7.8 20.9 0.00 0.00 0.00 51 1010.2
20260505054131 64 239 9.6 20.9 0.00 0.00 0.00 52 1010.2
20260505054035 64 277 9.6 20.9 0.00 0.00 0.00 52 1010.2
20260505053933 64 274 7.8 20.9 0.00 0.00 0.00 52 1010.2
20260505053832 64 288 7.8 17.4 0.00 0.00 0.00 52 1010.2
20260505053731 64 272 11.3 17.4 0.00 0.00 0.00 52 1010.2
20260505053628 64 306 7.8 17.4 0.00 0.00 0.00 52 1010.2
20260505053525 64 301 10.4 17.4 0.00 0.00 0.00 52 1010.2
20260505053424 64 254 11.3 17.4 0.00 0.00 0.00 52 1010.2
20260505053327 64 287 13.0 17.4 0.00 0.00 0.00 52 1010.2
20260505053225 64 302 7.8 16.5 0.00 0.00 0.00 52 1010.2
20260505053155 64 271 6.1 16.5 0.00 0.00 0.00 52 1010.2
20260505053032 64 270 8.7 16.5 0.00 0.00 0.00 52 1010.2
20260505052930 64 253 11.3 19.1 0.00 0.00 0.00 52 1010.2
20260505052828 64 239 7.8 19.1 0.00 0.00 0.00 52 1010.3
20260505052747 64 296 10.4 19.1 0.00 0.00 0.00 52 1010.3
20260505052643 64 251 9.6 19.1 0.00 0.00 0.00 52 1010.3
20260505052526 64 256 6.1 19.1 0.00 0.00 0.00 52 1010.3
20260505052447 64 270 7.8 19.1 0.00 0.00 0.00 53 1010.3
20260505052404 64 271 8.7 19.1 0.00 0.00 0.00 52 1010.3
20260505052242 64 223 9.6 19.1 0.00 0.00 0.00 52 1010.3
20260505052202 64 292 11.3 19.1 0.00 0.00 0.00 52 1010.3
20260505052039 64 296 11.3 19.1 0.00 0.00 0.00 52 1010.3
20260505051938 64 304 8.7 18.2 0.00 0.00 0.00 53 1010.3
20260505051837 64 258 7.8 18.2 0.00 0.00 0.00 52 1010.3
20260505051739 64 288 7.8 18.2 0.00 0.00 0.00 53 1010.3
20260505051710 64 213 9.6 18.2 0.00 0.00 0.00 53 1010.3
20260505051546 64 208 8.7 18.2 0.00 0.00 0.00 52 1010.3
20260505051504 64 299 7.8 18.2 0.00 0.00 0.00 52 1010.3
20260505051342 64 315 7.8 18.2 0.00 0.00 0.00 52 1010.4
20260505051239 64 212 10.4 18.2 0.00 0.00 0.00 52 1010.4
20260505051139 64 316 13.0 18.2 0.00 0.00 0.00 52 1010.4
20260505051038 64 261 11.3 18.2 0.00 0.00 0.00 52 1010.4
20260505050940 64 332 8.7 17.4 0.00 0.00 0.00 52 1010.4
20260505050838 64 278 8.7 17.4 0.00 0.00 0.00 52 1010.4
20260505050737 64 280 7.0 17.4 0.00 0.00 0.00 52 1010.4
20260505050636 64 257 8.7 17.4 0.00 0.00 0.00 52 1010.4
20260505050535 64 312 7.8 16.5 0.00 0.00 0.00 51 1010.4
20260505050434 64 257 12.2 20.9 0.00 0.00 0.00 51 1010.4
20260505050352 64 280 13.0 20.9 0.00 0.00 0.00 52 1010.4
20260505050305 64 267 7.8 20.9 0.00 0.00 0.00 52 1010.4
20260505050155 64 246 9.6 20.9 0.00 0.00 0.00 51 1010.4
20260505041741 65 316 7.8 18.2 0.00 0.00 0.00 52 1010.3
20260505041649 65 227 5.2 18.2 0.00 0.00 0.00 52 1010.3
20260505041526 65 250 8.7 18.2 0.00 0.00 0.00 52 1010.3
20260505041425 65 282 13.9 18.2 0.00 0.00 0.00 52 1010.3
20260505041343 65 234 12.2 17.4 0.00 0.00 0.00 52 1009.5
20260505041302 65 247 8.7 18.2 0.00 0.00 0.00 52 1009.5
20260505041124 65 274 7.8 18.2 0.00 0.00 0.00 52 1009.5
20260505041043 65 227 7.8 18.2 0.00 0.00 0.00 52 1009.5
20260505040941 65 280 9.6 18.2 0.00 0.00 0.00 53 1009.5
20260505040841 65 264 7.8 18.2 0.00 0.00 0.00 52 1009.5
20260505040738 65 271 10.4 18.2 0.00 0.00 0.00 52 1009.5
20260505040637 65 229 10.4 18.2 0.00 0.00 0.00 53 1009.5
20260505040536 65 282 7.8 18.2 0.00 0.00 0.00 53 1009.5
20260505040441 65 275 9.6 18.2 0.00 0.00 0.00 53 1009.5
20260505040339 65 263 9.6 18.2 0.00 0.00 0.00 53 1009.5
20260505040239 65 254 11.3 18.2 0.00 0.00 0.00 53 1009.5
20260505040209 65 227 11.3 18.2 0.00 0.00 0.00 53 1009.5
20260505040044 65 285 12.2 18.2 0.00 0.00 0.00 53 1009.5
20260505040004 65 274 9.6 16.5 0.00 0.00 0.00 53 1009.5
20260505035900 65 272 7.8 16.5 0.00 0.00 0.00 53 1009.5
20260505035738 65 277 11.3 16.5 0.00 0.00 0.00 54 1009.5
20260505035636 65 278 11.3 16.5 0.00 0.00 0.00 54 1009.5
20260505035540 65 256 11.3 16.5 0.00 0.00 0.00 53 1009.5
20260505035458 65 270 9.6 16.5 0.00 0.00 0.00 54 1009.5
20260505035336 65 243 8.7 16.5 0.00 0.00 0.00 54 1009.5
20260505035235 65 299 11.3 16.5 0.00 0.00 0.00 54 1009.5
20260505035134 65 271 10.4 16.5 0.00 0.00 0.00 54 1009.5
20260505035032 65 296 9.6 15.6 0.00 0.00 0.00 53 1009.5
20260505034931 65 272 8.7 15.6 0.00 0.00 0.00 53 1009.5
20260505034834 65 264 7.8 15.6 0.00 0.00 0.00 53 1009.5
20260505034732 65 316 7.8 15.6 0.00 0.00 0.00 54 1009.5
20260505034703 65 302 9.6 15.6 0.00 0.00 0.00 54 1009.5
20260505034541 65 311 8.7 15.6 0.00 0.00 0.00 53 1009.5
20260505034437 65 312 7.0 15.6 0.00 0.00 0.00 54 1009.5
20260505034337 66 294 9.6 15.6 0.00 0.00 0.00 53 1010.4
20260505034237 66 253 12.2 19.1 0.00 0.00 0.00 53 1010.4
20260505034139 66 285 11.3 19.1 0.00 0.00 0.00 53 1010.4
20260505034037 66 260 7.8 19.1 0.00 0.00 0.00 54 1010.4
20260505033935 66 284 7.8 19.1 0.00 0.00 0.00 53 1010.4
20260505033835 66 274 7.8 19.1 0.00 0.00 0.00 53 1010.4
20260505033752 66 248 5.2 19.1 0.00 0.00 0.00 53 1010.4
20260505033630 66 292 6.1 19.1 0.00 0.00 0.00 53 1010.4
20260505033529 66 320 7.8 19.1 0.00 0.00 0.00 53 1010.4
20260505033432 66 296 12.2 19.1 0.00 0.00 0.00 53 1010.4
20260505033331 66 315 7.8 18.2 0.00 0.00 0.00 53 1010.4
20260505033239 66 320 7.8 18.2 0.00 0.00 0.00 53 1010.4
20260505033149 66 229 10.4 18.2 0.00 0.00 0.00 53 1010.4
20260505033026 66 282 7.8 18.2 0.00 0.00 0.00 53 1010.4
20260505032924 66 260 7.8 18.2 0.00 0.00 0.00 53 1010.4
20260505032843 66 268 10.4 18.2 0.00 0.00 0.00 53 1010.6
20260505032726 66 272 8.7 15.6 0.00 0.00 0.00 53 1010.6
20260505032624 66 282 8.7 15.6 0.00 0.00 0.00 53 1010.6
20260505032522 66 299 6.1 15.6 0.00 0.00 0.00 53 1010.6
20260505032443 66 305 5.2 15.6 0.00 0.00 0.00 53 1010.6
20260505032342 66 195 6.1 15.6 0.00 0.00 0.00 53 1010.6
20260505032240 66 264 7.0 15.6 0.00 0.00 0.00 53 1010.6
20260505032139 66 292 9.6 15.6 0.00 0.00 0.00 53 1010.6
20260505032041 66 301 10.4 15.6 0.00 0.00 0.00 53 1010.6
20260505031959 66 329 9.6 15.6 0.00 0.00 0.00 53 1010.6
20260505031856 66 243 8.7 15.6 0.00 0.00 0.00 53 1010.6
20260505031732 66 322 11.3 15.6 0.00 0.00 0.00 53 1010.6
20260505031702 66 302 11.3 15.6 0.00 0.00 0.00 52 1010.6
20260505031539 66 289 9.6 15.6 0.00 0.00 0.00 52 1010.6
20260505031437 66 256 9.6 15.6 0.00 0.00 0.00 52 1010.6
20260505031335 66 239 7.8 15.6 0.00 0.00 0.00 52 1009.8
20260505031238 66 264 8.7 15.6 0.00 0.00 0.00 52 1009.8
20260505031136 66 288 7.0 15.6 0.00 0.00 0.00 51 1009.8
20260505031035 66 315 7.8 15.6 0.00 0.00 0.00 52 1009.8
20260505030954 66 284 8.7 15.6 0.00 0.00 0.00 52 1009.8
20260505030831 66 330 7.8 15.6 0.00 0.00 0.00 52 1009.8
20260505030729 66 287 7.8 14.8 0.00 0.00 0.00 51 1009.8
20260505030628 66 280 8.7 13.9 0.00 0.00 0.00 51 1009.8
20260505030530 66 326 7.0 12.2 0.00 0.00 0.00 52 1009.8
20260505030428 66 295 7.8 14.8 0.00 0.00 0.00 51 1009.8
20260505030328 66 256 7.8 16.5 0.00 0.00 0.00 51 1009.8
20260505030226 66 244 7.8 16.5 0.00 0.00 0.00 51 1009.8
20260505030157 66 285 8.7 16.5 0.00 0.00 0.00 51 1009.8
20260505030037 66 263 8.7 16.5 0.00 0.00 0.00 51 1009.8
20260505025935 66 267 6.1 16.5 0.00 0.00 0.00 51 1009.8
20260505025834 66 316 7.0 16.5 0.00 0.00 0.00 51 1009.9
20260505025735 66 224 7.0 16.5 0.00 0.00 0.00 51 1009.9
20260505025634 66 295 7.8 16.5 0.00 0.00 0.00 51 1009.9
20260505025532 66 298 11.3 16.5 0.00 0.00 0.00 51 1009.9
20260505025430 66 326 8.7 15.6 0.00 0.00 0.00 51 1009.9
20260505025329 66 288 6.1 15.6 0.00 0.00 0.00 51 1009.9
20260505025227 66 330 8.7 15.6 0.00 0.00 0.00 51 1009.9
20260505025146 66 309 7.0 15.6 0.00 0.00 0.00 51 1009.9
20260505025027 66 329 7.8 15.6 0.00 0.00 0.00 51 1009.9
20260505024929 66 311 8.7 14.8 0.00 0.00 0.00 51 1009.9
20260505024828 66 336 6.1 14.8 0.00 0.00 0.00 51 1009.9
20260505024727 66 251 7.8 14.8 0.00 0.00 0.00 51 1009.9
20260505024656 66 301 8.7 14.8 0.00 0.00 0.00 51 1009.9
20260505024534 66 268 7.8 14.8 0.00 0.00 0.00 51 1009.9
20260505024432 66 308 8.7 17.4 0.00 0.00 0.00 51 1009.9
20260505024335 66 304 8.7 17.4 0.00 0.00 0.00 51 1009.8
20260505024234 66 325 7.8 17.4 0.00 0.00 0.00 51 1009.8
20260505024133 66 320 7.8 17.4 0.00 0.00 0.00 51 1009.8
20260505024031 66 312 7.0 17.4 0.00 0.00 0.00 51 1009.8
20260505023929 66 281 7.8 17.4 0.00 0.00 0.00 51 1009.8
20260505023829 66 326 9.6 17.4 0.00 0.00 0.00 51 1009.8
20260505023732 66 313 7.0 17.4 0.00 0.00 0.00 51 1009.8
20260505023629 66 294 10.4 17.4 0.00 0.00 0.00 51 1009.8
20260505023529 66 229 9.6 15.6 0.00 0.00 0.00 51 1009.8
20260505023426 66 264 5.2 15.6 0.00 0.00 0.00 50 1009.8
20260505023325 66 294 6.1 15.6 0.00 0.00 0.00 50 1009.8
20260505023224 66 299 9.6 15.6 0.00 0.00 0.00 51 1009.8
20260505023153 66 298 7.8 15.6 0.00 0.00 0.00 51 1009.8
20260505023034 66 328 7.8 15.6 0.00 0.00 0.00 51 1009.8
20260505022932 66 294 9.6 16.5 0.00 0.00 0.00 50 1009.8
20260505022831 66 289 8.7 16.5 0.00 0.00 0.00 50 1009.7
20260505022730 66 305 6.1 16.5 0.00 0.00 0.00 51 1009.7
20260505022627 66 311 8.7 16.5 0.00 0.00 0.00 51 1009.7
20260505022527 66 313 7.0 16.5 0.00 0.00 0.00 50 1009.7
20260505022429 66 256 10.4 16.5 0.00 0.00 0.00 50 1009.7
20260505022332 66 282 5.2 16.5 0.00 0.00 0.00 51 1009.7
20260505022230 66 304 8.7 16.5 0.00 0.00 0.00 51 1009.7
20260505022129 66 280 7.8 16.5 0.00 0.00 0.00 50 1009.7
20260505022027 66 268 7.8 14.8 0.00 0.00 0.00 51 1009.7
20260505021944 66 301 7.0 14.8 0.00 0.00 0.00 51 1009.7
20260505021842 66 322 7.8 14.8 0.00 0.00 0.00 51 1009.7
20260505021725 66 306 7.8 14.8 0.00 0.00 0.00 51 1009.7
20260505021655 66 305 6.1 14.8 0.00 0.00 0.00 51 1009.7
20260505021532 66 311 7.0 14.8 0.00 0.00 0.00 51 1009.7
20260505021430 66 325 7.8 14.8 0.00 0.00 0.00 51 1009.7
20260505021349 66 260 9.6 14.8 0.00 0.00 0.00 51 1009.7
20260505021307 66 282 10.4 14.8 0.00 0.00 0.00 51 1009.7
20260505021205 66 292 11.3 14.8 0.00 0.00 0.00 50 1009.7
20260505021103 66 289 9.6 14.8 0.00 0.00 0.00 50 1009.7
20260505020942 66 234 10.4 14.8 0.00 0.00 0.00 50 1009.7
20260505020843 66 291 10.4 14.8 0.00 0.00 0.00 51 1009.7
20260505020742 66 295 10.4 14.8 0.00 0.00 0.00 50 1009.7
20260505020642 66 313 7.0 14.8 0.00 0.00 0.00 50 1009.7
20260505020539 66 248 6.1 14.8 0.00 0.00 0.00 50 1009.7
20260505020439 66 230 8.7 14.8 0.00 0.00 0.00 50 1009.7
20260505020337 66 318 7.8 14.8 0.00 0.00 0.00 50 1009.7
20260505020236 66 291 7.0 14.8 0.00 0.00 0.00 50 1009.7
20260505020210 66 312 9.6 14.8 0.00 0.00 0.00 50 1009.7
20260505020027 66 229 7.8 14.8 0.00 0.00 0.00 50 1009.7
20260505015947 67 322 8.7 14.8 0.00 0.00 0.00 51 1009.7
20260505015825 67 281 7.8 15.6 0.00 0.00 0.00 50 1009.6
20260505015745 67 323 7.8 15.6 0.00 0.00 0.00 50 1009.6
20260505015705 67 240 7.0 15.6 0.00 0.00 0.00 50 1009.6
20260505015542 67 318 7.0 15.6 0.00 0.00 0.00 50 1009.6
20260505015440 67 281 7.0 15.6 0.00 0.00 0.00 50 1009.6
20260505015342 67 304 5.2 15.6 0.00 0.00 0.00 50 1009.6
20260505015241 67 285 7.0 15.6 0.00 0.00 0.00 50 1009.6
20260505015140 67 282 9.6 15.6 0.00 0.00 0.00 50 1009.6
20260505015058 67 257 10.4 15.6 0.00 0.00 0.00 50 1009.6
20260505014935 67 277 9.6 14.8 0.00 0.00 0.00 50 1009.6
20260505014853 67 264 9.6 14.8 0.00 0.00 0.00 50 1009.6
20260505014751 67 326 8.7 14.8 0.00 0.00 0.00 50 1009.6
20260505014720 67 329 9.6 14.8 0.00 0.00 0.00 50 1009.6
20260505014538 67 320 9.6 14.8 0.00 0.00 0.00 50 1009.6
20260505014442 67 291 8.7 13.0 0.00 0.00 0.00 50 1009.6
20260505014340 67 329 9.6 13.0 0.00 0.00 0.00 50 1009.6
20260505014257 67 265 8.7 13.0 0.00 0.00 0.00 50 1009.6
20260505014135 67 298 7.8 13.0 0.00 0.00 0.00 50 1009.6
20260505014033 67 284 7.8 13.0 0.00 0.00 0.00 50 1009.6
20260505013932 67 260 7.8 12.2 0.00 0.00 0.00 49 1009.6
20260505013831 67 284 8.7 12.2 0.00 0.00 0.00 49 1009.6
20260505013753 67 330 7.0 14.8 0.00 0.00 0.00 50 1009.6
20260505013629 67 294 6.1 14.8 0.00 0.00 0.00 49 1009.6
20260505013528 67 319 8.7 14.8 0.00 0.00 0.00 49 1009.6
20260505013426 67 304 7.8 14.8 0.00 0.00 0.00 49 1009.6
20260505013325 67 323 7.0 14.8 0.00 0.00 0.00 48 1009.6
20260505013235 67 299 7.0 14.8 0.00 0.00 0.00 48 1009.6
20260505013146 67 330 7.0 14.8 0.00 0.00 0.00 48 1009.6
20260505013027 67 291 9.6 14.8 0.00 0.00 0.00 48 1009.6
20260505012944 67 326 8.7 14.8 0.00 0.00 0.00 48 1009.6
20260505012903 67 284 8.7 14.8 0.00 0.00 0.00 48 1009.6
20260505012801 67 287 7.8 12.2 0.00 0.00 0.00 48 1009.6
20260505012636 67 302 7.0 12.2 0.00 0.00 0.00 48 1009.6
20260505012554 67 330 7.0 12.2 0.00 0.00 0.00 48 1009.6
20260505012452 67 323 7.8 12.2 0.00 0.00 0.00 48 1009.6
20260505012330 67 329 9.6 12.2 0.00 0.00 0.00 48 1009.6
20260505012252 67 280 7.8 12.2 0.00 0.00 0.00 48 1009.6
20260505012129 67 315 7.8 12.2 0.00 0.00 0.00 47 1009.6
20260505012032 67 332 7.8 12.2 0.00 0.00 0.00 48 1009.6
20260505011952 67 333 7.0 14.8 0.00 0.00 0.00 48 1009.6
20260505011830 67 320 4.3 14.8 0.00 0.00 0.00 48 1009.6
20260505011741 67 313 6.1 14.8 0.00 0.00 0.00 48 1009.6
20260505011651 67 294 7.0 14.8 0.00 0.00 0.00 48 1009.6
20260505011529 67 291 4.3 14.8 0.00 0.00 0.00 47 1009.6
20260505011447 67 268 6.1 14.8 0.00 0.00 0.00 47 1009.6
20260505011325 67 195 7.8 14.8 0.00 0.00 0.00 47 1009.6
20260505011227 68 240 7.0 14.8 0.00 0.00 0.00 48 1009.6
20260505011146 68 335 8.7 14.8 0.00 0.00 0.00 47 1009.6
20260505011042 68 332 9.6 14.8 0.00 0.00 0.00 47 1009.6
20260505010940 68 325 7.8 14.8 0.00 0.00 0.00 47 1009.6
20260505010839 68 329 9.6 14.8 0.00 0.00 0.00 48 1009.6
20260505010737 68 322 8.7 14.8 0.00 0.00 0.00 47 1009.6
20260505010637 68 304 5.2 12.2 0.00 0.00 0.00 47 1009.6
20260505010535 68 337 7.8 12.2 0.00 0.00 0.00 47 1009.6
20260505010436 68 328 5.2 12.2 0.00 0.00 0.00 47 1009.6
20260505010335 68 301 6.1 12.2 0.00 0.00 0.00 47 1009.6
20260505010305 68 312 5.2 12.2 0.00 0.00 0.00 47 1009.6
20260505010154 68 329 5.2 12.2 0.00 0.00 0.00 47 1009.6
20260505010050 68 302 5.2 12.2 0.00 0.00 0.00 47 1009.6
20260505005948 68 309 7.8 12.2 0.00 0.00 0.00 47 1009.6
20260505005825 68 301 5.2 11.3 0.00 0.00 0.00 46 1009.4
20260505005742 68 322 7.0 13.9 0.00 0.00 0.00 46 1009.4
20260505005700 68 309 6.1 13.9 0.00 0.00 0.00 46 1009.4
20260505005539 68 281 4.3 13.9 0.00 0.00 0.00 46 1009.4
20260505005441 68 332 6.1 13.9 0.00 0.00 0.00 47 1009.4
20260505005339 68 305 6.1 13.9 0.00 0.00 0.00 47 1009.4
20260505005237 68 328 7.0 13.9 0.00 0.00 0.00 46 1009.4
20260505005134 68 326 7.8 13.9 0.00 0.00 0.00 47 1009.4
20260505005034 68 313 6.1 14.8 0.00 0.00 0.00 47 1009.4
20260505004933 68 330 9.6 14.8 0.00 0.00 0.00 47 1009.4
20260505004851 68 325 10.4 14.8 0.00 0.00 0.00 47 1009.4
20260505004744 68 325 6.1 14.8 0.00 0.00 0.00 46 1009.4
20260505004655 68 316 7.8 14.8 0.00 0.00 0.00 46 1009.4
20260505004532 69 305 7.0 14.8 0.00 0.00 0.00 46 1009.4
20260505004430 69 329 7.0 14.8 0.00 0.00 0.00 46 1009.4
20260505004329 69 267 8.7 16.5 0.00 0.00 0.00 46 1009.4
20260505004228 69 296 7.0 16.5 0.00 0.00 0.00 46 1009.4
20260505004126 69 319 8.7 16.5 0.00 0.00 0.00 47 1009.4
20260505004027 69 311 6.1 16.5 0.00 0.00 0.00 47 1009.4
20260505003946 69 304 7.0 16.5 0.00 0.00 0.00 46 1009.4
20260505003904 69 330 7.8 16.5 0.00 0.00 0.00 46 1009.4
20260505003742 69 281 6.1 16.5 0.00 0.00 0.00 45 1009.4
20260505003641 69 316 7.0 16.5 0.00 0.00 0.00 45 1009.4
20260505003538 69 296 10.4 16.5 0.00 0.00 0.00 46 1009.4
20260505003437 69 326 7.0 11.3 0.00 0.00 0.00 46 1009.4
20260505003335 69 230 5.2 13.0 0.00 0.00 0.00 46 1009.4
20260505003235 69 320 6.1 13.0 0.00 0.00 0.00 46 1009.4
20260505003205 69 272 5.2 13.0 0.00 0.00 0.00 46 1009.4
20260505003041 69 271 7.8 13.0 0.00 0.00 0.00 46 1009.4
20260505002939 69 287 7.0 13.0 0.00 0.00 0.00 45 1009.4
20260505002838 69 294 5.2 13.0 0.00 0.00 0.00 45 1009.2
20260505002736 69 329 6.1 13.0 0.00 0.00 0.00 45 1009.2
20260505002635 69 328 6.1 13.0 0.00 0.00 0.00 45 1009.2
20260505002554 69 284 8.7 13.0 0.00 0.00 0.00 45 1009.2
20260505002434 69 330 7.0 12.2 0.00 0.00 0.00 46 1009.2
20260505002332 69 292 5.2 12.2 0.00 0.00 0.00 45 1009.2
20260505002231 69 285 5.2 12.2 0.00 0.00 0.00 46 1009.2
20260505002131 70 328 7.8 13.9 0.00 0.00 0.00 45 1009.2
20260505002029 70 308 7.8 13.9 0.00 0.00 0.00 44 1009.2
20260505001928 70 309 4.3 17.4 0.00 0.00 0.00 44 1009.2
20260505001830 70 282 4.3 17.4 0.00 0.00 0.00 44 1009.2
20260505001803 70 313 7.8 17.4 0.00 0.00 0.00 44 1009.2
20260505001651 70 325 7.0 17.4 0.00 0.00 0.00 44 1009.2
20260505001529 70 319 7.0 17.4 0.00 0.00 0.00 44 1009.2
20260505001426 70 288 6.1 17.4 0.00 0.00 0.00 45 1009.2
20260505001325 70 281 7.0 17.4 0.00 0.00 0.00 44 1009.2
20260505001224 70 316 7.0 17.4 0.00 0.00 0.00 45 1009.2
20260505001141 70 268 9.6 17.4 0.00 0.00 0.00 45 1009.2
20260505001024 70 275 8.7 15.6 0.00 0.00 0.00 45 1009.2
20260505000943 70 296 6.1 15.6 0.00 0.00 0.00 44 1009.2
20260505000842 70 257 4.3 15.6 0.00 0.00 0.00 44 1009.2
20260505000801 70 258 8.7 15.6 0.00 0.00 0.00 44 1009.2
20260505000639 70 278 9.6 15.6 0.00 0.00 0.00 45 1009.2
20260505000537 70 284 7.8 12.2 0.00 0.00 0.00 45 1009.2
20260505000435 70 264 5.2 12.2 0.00 0.00 0.00 45 1009.2
20260505000337 70 281 4.3 12.2 0.00 0.00 0.00 45 1009.2
20260505000235 70 251 3.5 12.2 0.00 0.00 0.00 45 1009.2
20260505000145 70 323 5.2 12.2 0.00 0.00 0.00 45 1009.2
20260505000041 70 291 5.2 12.2 0.00 0.00 0.00 44 1009.2
20260504235940 70 330 6.1 12.2 0.00 0.00 0.00 44 1009.2
20260504235858 70 312 9.6 12.2 0.00 0.00 0.00 45 1009.2
20260504235757 70 305 6.1 12.2 0.00 0.00 0.00 44 1009.2
20260504235635 70 272 7.8 12.2 0.00 0.00 0.00 44 1009.2
20260504235537 70 305 7.0 12.2 0.00 0.00 0.00 44 1009.2
20260504235439 70 264 7.8 12.2 0.00 0.00 0.00 44 1009.2
20260504235339 71 294 8.7 12.2 0.00 0.00 0.00 44 1009.2
20260504235258 71 305 7.0 15.6 0.00 0.00 0.00 45 1009.2
20260504235135 71 316 6.1 15.6 0.00 0.00 0.00 45 1009.2
20260504235033 71 328 5.2 15.6 0.00 0.00 0.00 44 1009.2
20260504234931 71 299 4.3 15.6 0.00 0.00 0.00 44 1009.2
20260504234831 71 328 3.5 16.5 0.00 0.00 0.00 44 1009.2
20260504234733 71 274 4.3 16.5 0.00 0.00 0.00 43 1009.2
20260504234701 71 318 8.7 18.2 0.00 0.00 0.00 44 1009.2
20260504234539 71 234 8.7 18.2 0.00 0.00 0.00 44 1009.2
20260504234437 71 257 8.7 18.2 0.00 0.00 0.00 43 1009.2
20260504234355 71 267 11.3 18.2 0.00 0.00 0.00 44 1009.2
20260504234233 71 309 6.1 18.2 0.00 0.00 0.00 44 1009.2
20260504234131 71 278 5.2 18.2 0.00 0.00 0.00 44 1009.2
20260504234033 71 258 9.6 18.2 0.00 0.00 0.00 43 1009.2
20260504233931 71 304 9.6 18.2 0.00 0.00 0.00 44 1009.2
20260504233830 71 281 11.3 18.2 0.00 0.00 0.00 45 1009.2
20260504233751 71 281 5.2 17.4 0.00 0.00 0.00 45 1009.2
20260504233629 71 301 7.8 17.4 0.00 0.00 0.00 45 1009.2
20260504233548 71 292 4.3 15.6 0.00 0.00 0.00 45 1009.2
20260504233505 71 305 8.7 15.6 0.00 0.00 0.00 46 1009.2
20260504233403 71 250 8.7 15.6 0.00 0.00 0.00 46 1009.2
20260504233302 71 308 3.5 15.6 0.00 0.00 0.00 46 1009.2
20260504233210 71 308 9.6 15.6 0.00 0.00 0.00 46 1009.2
20260504233030 71 311 7.8 15.6 0.00 0.00 0.00 45 1009.2
20260504232948 71 265 5.2 15.6 0.00 0.00 0.00 45 1009.2
20260504232824 71 222 4.3 15.6 0.00 0.00 0.00 45 1009.3
20260504232742 71 312 7.0 15.6 0.00 0.00 0.00 45 1009.3
20260504232641 71 258 6.1 15.6 0.00 0.00 0.00 45 1009.3
20260504232540 71 274 5.2 15.6 0.00 0.00 0.00 45 1009.3
20260504232459 71 248 7.0 15.6 0.00 0.00 0.00 44 1009.3
20260504232355 71 302 6.1 15.6 0.00 0.00 0.00 45 1009.3
20260504232253 72 289 6.1 15.6 0.00 0.00 0.00 45 1009.3
20260504232135 72 309 8.7 15.6 0.00 0.00 0.00 46 1009.3
20260504232033 72 320 9.6 14.8 0.00 0.00 0.00 46 1009.3
20260504231932 72 288 4.3 14.8 0.00 0.00 0.00 45 1009.3
20260504231830 72 328 7.8 14.8 0.00 0.00 0.00 45 1009.3
20260504231800 72 302 4.3 20.9 0.00 0.00 0.00 45 1009.3
20260504231646 72 305 7.8 20.9 0.00 0.00 0.00 45 1009.3
20260504231543 72 333 9.6 20.9 0.00 0.00 0.00 45 1009.3
20260504231425 72 239 8.7 20.9 0.00 0.00 0.00 44 1009.3
20260504231343 72 248 7.8 20.9 0.00 0.00 0.00 45 1009.2
20260504231241 72 270 8.7 20.9 0.00 0.00 0.00 45 1009.2
20260504231140 72 301 8.7 20.9 0.00 0.00 0.00 44 1009.2
20260504231038 72 312 5.2 20.9 0.00 0.00 0.00 45 1009.2
20260504230936 72 277 12.2 20.9 0.00 0.00 0.00 44 1009.2
20260504230836 72 268 11.3 20.9 0.00 0.00 0.00 44 1009.2
20260504230755 72 298 7.8 15.6 0.00 0.00 0.00 44 1009.2
20260504230635 72 294 7.8 15.6 0.00 0.00 0.00 44 1009.2
20260504230535 72 263 11.3 15.6 0.00 0.00 0.00 45 1009.2
20260504230436 72 312 8.7 15.6 0.00 0.00 0.00 45 1009.2
20260504230333 72 267 8.7 15.6 0.00 0.00 0.00 45 1009.2
20260504230243 72 271 7.0 15.6 0.00 0.00 0.00 45 1009.2
20260504230154 72 256 5.2 15.6 0.00 0.00 0.00 45 1009.2
20260504230051 72 272 6.1 17.4 0.00 0.00 0.00 44 1009.2
20260504225932 72 309 10.4 17.4 0.00 0.00 0.00 45 1009.2
20260504225850 72 284 8.7 18.2 0.00 0.00 0.00 45 1009.4
20260504225747 72 275 9.6 18.2 0.00 0.00 0.00 45 1009.4
20260504225706 72 284 8.7 18.2 0.00 0.00 0.00 45 1009.4
20260504225603 72 316 5.2 18.2 0.00 0.00 0.00 44 1009.4
20260504225440 72 298 5.2 18.2 0.00 0.00 0.00 44 1009.4
20260504225339 72 326 7.8 18.2 0.00 0.00 0.00 44 1009.4
20260504225236 72 288 11.3 18.2 0.00 0.00 0.00 44 1009.4
20260504225136 72 298 12.2 18.2 0.00 0.00 0.00 44 1009.4
20260504225038 72 267 12.2 18.2 0.00 0.00 0.00 44 1009.4
20260504224937 72 301 7.8 14.8 0.00 0.00 0.00 44 1009.4
20260504224837 72 309 7.0 13.9 0.00 0.00 0.00 44 1009.4
20260504224735 72 299 4.3 13.9 0.00 0.00 0.00 44 1009.4
20260504224704 72 335 5.2 14.8 0.00 0.00 0.00 44 1009.4
20260504224541 72 330 7.8 14.8 0.00 0.00 0.00 44 1009.4
20260504224459 72 298 7.8 14.8 0.00 0.00 0.00 44 1009.4
20260504224336 72 315 6.1 14.8 0.00 0.00 0.00 43 1009.5
20260504224239 72 280 6.1 14.8 0.00 0.00 0.00 43 1009.5
20260504224137 72 291 6.1 14.8 0.00 0.00 0.00 43 1009.5
20260504224056 72 257 8.7 14.8 0.00 0.00 0.00 43 1009.5
20260504223932 72 280 6.1 14.8 0.00 0.00 0.00 43 1009.5
20260504223851 72 224 8.7 15.6 0.00 0.00 0.00 43 1009.5
20260504223729 72 257 4.3 15.6 0.00 0.00 0.00 43 1009.5
20260504223627 72 282 7.8 15.6 0.00 0.00 0.00 43 1009.5
20260504223530 72 304 8.7 15.6 0.00 0.00 0.00 43 1009.5
20260504223429 72 268 4.3 15.6 0.00 0.00 0.00 43 1009.5
20260504223328 72 298 2.6 15.6 0.00 0.00 0.00 43 1009.5
20260504223227 72 305 6.1 15.6 0.00 0.00 0.00 43 1009.5
20260504223157 72 291 7.0 15.6 0.00 0.00 0.00 43 1009.5
20260504223033 72 304 9.6 15.6 0.00 0.00 0.00 44 1009.5
20260504222931 72 304 7.0 15.6 0.00 0.00 0.00 44 1009.5
20260504222850 72 292 10.4 15.6 0.00 0.00 0.00 45 1009.4
20260504222732 72 280 6.1 14.8 0.00 0.00 0.00 45 1009.4
20260504222631 72 298 5.2 21.7 0.00 0.00 0.00 45 1009.4
20260504222530 72 285 7.0 21.7 0.00 0.00 0.00 45 1009.4
20260504222430 72 248 3.5 21.7 0.00 0.00 0.00 45 1009.4
20260504222328 73 292 8.7 21.7 0.00 0.00 0.00 44 1009.4
20260504222226 73 319 7.0 21.7 0.00 0.00 0.00 44 1009.4
20260504222129 73 270 9.6 21.7 0.00 0.00 0.00 44 1009.4
20260504222030 73 309 9.6 21.7 0.00 0.00 0.00 44 1009.4
20260504221929 73 268 7.8 21.7 0.00 0.00 0.00 44 1009.4
20260504221847 73 280 13.9 21.7 0.00 0.00 0.00 44 1009.4
20260504221745 73 264 8.7 18.2 0.00 0.00 0.00 44 1009.4
20260504221715 73 282 7.0 18.2 0.00 0.00 0.00 44 1009.4
20260504221531 73 248 7.8 18.2 0.00 0.00 0.00 45 1009.4
20260504221430 73 271 8.7 18.2 0.00 0.00 0.00 45 1009.4
20260504221332 73 291 11.3 18.2 0.00 0.00 0.00 45 1009.5
20260504221250 73 302 10.4 18.2 0.00 0.00 0.00 45 1009.5
20260504221127 73 308 8.7 18.2 0.00 0.00 0.00 45 1009.5
20260504221025 73 291 11.3 18.2 0.00 0.00 0.00 44 1009.5
20260504220924 73 292 5.2 18.2 0.00 0.00 0.00 44 1009.5
20260504220824 73 302 8.7 18.2 0.00 0.00 0.00 44 1009.5
20260504220743 73 320 8.7 18.2 0.00 0.00 0.00 44 1009.5
20260504220627 73 272 10.4 18.2 0.00 0.00 0.00 44 1009.5
20260504220526 73 272 8.7 18.2 0.00 0.00 0.00 44 1009.5
20260504220424 73 267 5.2 15.6 0.00 0.00 0.00 44 1009.5
20260504220323 73 330 7.8 15.6 0.00 0.00 0.00 44 1009.5
20260504220237 73 329 6.1 15.6 0.00 0.00 0.00 44 1009.5
20260504220148 73 304 7.0 15.6 0.00 0.00 0.00 43 1009.5
20260504220043 73 318 5.2 15.6 0.00 0.00 0.00 43 1009.5
20260504215926 73 301 6.1 15.6 0.00 0.00 0.00 42 1009.5
20260504215824 73 323 7.0 15.6 0.00 0.00 0.00 42 1009.5
20260504215743 73 308 9.6 15.6 0.00 0.00 0.00 42 1009.5
20260504215643 73 287 8.7 15.6 0.00 0.00 0.00 42 1009.5
20260504215541 73 313 6.1 11.3 0.00 0.00 0.00 42 1009.5
20260504215440 73 326 4.3 11.3 0.00 0.00 0.00 41 1009.5
20260504215359 73 306 6.1 12.2 0.00 0.00 0.00 40 1009.5
20260504215236 73 311 6.1 12.2 0.00 0.00 0.00 40 1009.5
20260504215159 73 251 6.1 12.2 0.00 0.00 0.00 39 1009.5
20260504215056 73 278 7.8 12.2 0.00 0.00 0.00 38 1009.5
20260504214933 73 325 7.0 14.8 0.00 0.00 0.00 39 1009.5
20260504214832 73 287 1.7 14.8 0.00 0.00 0.00 39 1009.5
20260504214800 73 305 5.2 16.5 0.00 0.00 0.00 39 1009.5
20260504214647 73 329 4.3 16.5 0.00 0.00 0.00 39 1009.5
20260504214524 73 318 7.0 16.5 0.00 0.00 0.00 38 1009.5
20260504214442 73 274 6.1 16.5 0.00 0.00 0.00 38 1009.5
20260504214325 73 304 7.0 16.5 0.00 0.00 0.00 38 1009.4
20260504214244 73 284 7.8 16.5 0.00 0.00 0.00 39 1009.4